Time,TemperatureF,DewpointF,PressureIn,WindDirection,WindDirectionDegrees,WindSpeedMPH,WindSpeedGustMPH,Humidity,HourlyPrecipIn,Conditions,Clouds,dailyrainin,SoftwareType,DateUTC
2013-01-07 00:00:00,28.0,22.3,30.35,WNW,283,4.5,6.0,79,0.00,,,0.00,VWS V14.01,2013-01-07 05:00:00,
2013-01-07 00:01:00,28.0,22.3,30.35,WNW,283,1.5,3.0,79,0.00,,,0.00,VWS V14.01,2013-01-07 05:01:00,
2013-01-07 00:02:00,28.1,22.4,30.35,West,272,3.0,3.0,79,0.00,,,0.00,VWS V14.01,2013-01-07 05:02:00,
2013-01-07 00:03:00,28.1,22.4,30.35,West,267,3.0,4.5,79,0.00,,,0.00,VWS V14.01,2013-01-07 05:03:00,
2013-01-07 00:04:00,28.0,22.3,30.35,WSW,257,3.0,4.5,79,0.00,,,0.00,VWS V14.01,2013-01-07 05:04:00,
2013-01-07 00:05:00,28.0,22.3,30.35,WSW,255,3.0,4.5,79,0.00,,,0.00,VWS V14.01,2013-01-07 05:05:00,
2013-01-07 00:06:00,28.1,22.4,30.35,West,271,3.0,4.5,79,0.00,,,0.00,VWS V14.01,2013-01-07 05:06:00,
2013-01-07 00:07:00,28.1,22.4,30.36,West,271,3.0,3.0,79,0.00,,,0.00,VWS V14.01,2013-01-07 05:07:00,
2013-01-07 00:08:00,28.1,22.4,30.35,WSW,251,3.0,3.0,79,0.00,,,0.00,VWS V14.01,2013-01-07 05:08:00,
2013-01-07 00:09:00,28.1,22.4,30.35,WSW,258,3.0,4.5,79,0.00,,,0.00,VWS V14.01,2013-01-07 05:09:00,
2013-01-07 00:10:00,28.1,22.4,30.35,WSW,258,1.5,3.0,79,0.00,,,0.00,VWS V14.01,2013-01-07 05:10:00,
2013-01-07 00:11:00,28.1,22.4,30.35,WSW,257,1.5,1.5,79,0.00,,,0.00,VWS V14.01,2013-01-07 05:11:00,
2013-01-07 00:12:00,28.1,22.4,30.35,WSW,258,1.5,1.5,79,0.00,,,0.00,VWS V14.01,2013-01-07 05:12:00,
2013-01-07 00:13:00,28.1,22.4,30.35,WSW,258,1.5,1.5,79,0.00,,,0.00,VWS V14.01,2013-01-07 05:13:00,
2013-01-07 00:14:00,28.0,22.3,30.35,WSW,242,1.5,3.0,79,0.00,,,0.00,VWS V14.01,2013-01-07 05:14:00,
2013-01-07 00:15:00,28.0,22.3,30.35,WSW,243,1.5,1.5,79,0.00,,,0.00,VWS V14.01,2013-01-07 05:15:00,
2013-01-07 00:16:00,28.0,22.3,30.35,WSW,243,1.5,1.5,79,0.00,,,0.00,VWS V14.01,2013-01-07 05:16:00,
2013-01-07 00:18:00,28.0,22.3,30.36,ENE,74,1.5,3.0,79,0.00,,,0.00,VWS V14.01,2013-01-07 05:18:00,
2013-01-07 00:19:00,28.0,22.3,30.36,ENE,74,1.5,1.5,79,0.00,,,0.00,VWS V14.01,2013-01-07 05:19:00,
2013-01-07 00:20:00,27.9,22.2,30.36,ENE,74,1.5,1.5,79,0.00,,,0.00,VWS V14.01,2013-01-07 05:20:00,
2013-01-07 00:21:00,27.9,22.2,30.36,ENE,74,1.5,1.5,79,0.00,,,0.00,VWS V14.01,2013-01-07 05:21:00,
2013-01-07 00:22:00,27.9,22.2,30.36,ENE,74,1.5,1.5,79,0.00,,,0.00,VWS V14.01,2013-01-07 05:22:00,
2013-01-07 00:23:00,27.8,22.1,30.36,ENE,74,1.5,1.5,79,0.00,,,0.00,VWS V14.01,2013-01-07 05:23:00,
2013-01-07 00:24:00,27.8,22.4,30.36,ENE,74,1.5,1.5,80,0.00,,,0.00,VWS V14.01,2013-01-07 05:24:00,
2013-01-07 00:25:00,27.8,22.4,30.36,ENE,74,1.5,1.5,80,0.00,,,0.00,VWS V14.01,2013-01-07 05:25:00,
2013-01-07 00:26:00,27.7,22.3,30.36,ENE,74,1.5,1.5,80,0.00,,,0.00,VWS V14.01,2013-01-07 05:26:00,
2013-01-07 00:27:00,27.7,22.3,30.36,ENE,74,1.5,1.5,80,0.00,,,0.00,VWS V14.01,2013-01-07 05:27:00,
2013-01-07 00:28:00,27.6,22.5,30.36,ENE,74,1.5,1.5,81,0.00,,,0.00,VWS V14.01,2013-01-07 05:28:00,
2013-01-07 00:29:00,27.6,22.5,30.36,ENE,74,1.5,1.5,81,0.00,,,0.00,VWS V14.01,2013-01-07 05:29:00,
2013-01-07 00:30:00,27.5,22.4,30.36,ENE,74,1.5,1.5,81,0.00,,,0.00,VWS V14.01,2013-01-07 05:30:00,
2013-01-07 00:31:00,27.5,22.4,30.36,ENE,74,1.5,1.5,81,0.00,,,0.00,VWS V14.01,2013-01-07 05:31:00,
2013-01-07 00:32:00,27.4,22.3,30.36,ENE,74,1.5,1.5,81,0.00,,,0.00,VWS V14.01,2013-01-07 05:32:00,
2013-01-07 00:33:00,27.4,22.3,30.36,ENE,74,1.5,1.5,81,0.00,,,0.00,VWS V14.01,2013-01-07 05:33:00,
2013-01-07 00:34:00,27.3,22.2,30.36,ENE,74,1.5,1.5,81,0.00,,,0.00,VWS V14.01,2013-01-07 05:34:00,
2013-01-07 00:35:00,27.3,22.2,30.36,ENE,74,1.5,1.5,81,0.00,,,0.00,VWS V14.01,2013-01-07 05:35:00,
2013-01-07 00:36:00,27.2,22.1,30.36,ENE,74,1.5,1.5,81,0.00,,,0.00,VWS V14.01,2013-01-07 05:36:00,
2013-01-07 00:37:00,27.2,22.1,30.36,SE,139,1.5,1.5,81,0.00,,,0.00,VWS V14.01,2013-01-07 05:37:00,
2013-01-07 00:38:00,27.2,22.1,30.36,SE,138,1.5,1.5,81,0.00,,,0.00,VWS V14.01,2013-01-07 05:38:00,
2013-01-07 00:39:00,27.2,22.4,30.36,SE,139,1.5,1.5,82,0.00,,,0.00,VWS V14.01,2013-01-07 05:39:00,
2013-01-07 00:40:00,27.2,22.4,30.36,SE,139,1.5,1.5,82,0.00,,,0.00,VWS V14.01,2013-01-07 05:40:00,
2013-01-07 00:41:00,27.2,22.4,30.36,SE,138,1.5,1.5,82,0.00,,,0.00,VWS V14.01,2013-01-07 05:41:00,
2013-01-07 00:42:00,27.2,22.4,30.36,SSW,204,1.5,1.5,82,0.00,,,0.00,VWS V14.01,2013-01-07 05:42:00,
2013-01-07 00:43:00,27.2,22.4,30.36,SSW,204,1.5,1.5,82,0.00,,,0.00,VWS V14.01,2013-01-07 05:43:00,
2013-01-07 00:44:00,27.3,22.5,30.36,SSW,203,1.5,1.5,82,0.00,,,0.00,VWS V14.01,2013-01-07 05:44:00,
2013-01-07 00:45:00,27.3,22.5,30.36,SSW,203,1.5,1.5,82,0.00,,,0.00,VWS V14.01,2013-01-07 05:45:00,
2013-01-07 00:46:00,27.3,22.2,30.36,SSW,203,1.5,1.5,81,0.00,,,0.00,VWS V14.01,2013-01-07 05:46:00,
2013-01-07 00:47:00,27.3,22.2,30.36,SSW,204,1.5,1.5,81,0.00,,,0.00,VWS V14.01,2013-01-07 05:47:00,
2013-01-07 00:48:00,27.3,22.5,30.36,SSW,203,1.5,1.5,82,0.00,,,0.00,VWS V14.01,2013-01-07 05:48:00,
2013-01-07 00:49:00,27.3,22.5,30.36,SSW,203,1.5,1.5,82,0.00,,,0.00,VWS V14.01,2013-01-07 05:49:00,
2013-01-07 00:50:00,27.2,22.4,30.36,SSW,204,1.5,1.5,82,0.00,,,0.00,VWS V14.01,2013-01-07 05:50:00,
2013-01-07 00:51:00,27.3,22.5,30.36,SSW,204,1.5,1.5,82,0.00,,,0.00,VWS V14.01,2013-01-07 05:51:00,
2013-01-07 00:52:00,27.3,22.2,30.36,SSW,203,1.5,1.5,81,0.00,,,0.00,VWS V14.01,2013-01-07 05:52:00,
2013-01-07 00:53:00,27.3,22.2,30.37,SSW,203,1.5,1.5,81,0.00,,,0.00,VWS V14.01,2013-01-07 05:53:00,
2013-01-07 00:54:00,27.3,22.5,30.37,SW,217,1.5,1.5,82,0.00,,,0.00,VWS V14.01,2013-01-07 05:54:00,
2013-01-07 00:55:00,27.3,22.5,30.36,SW,231,1.5,1.5,82,0.00,,,0.00,VWS V14.01,2013-01-07 05:55:00,
2013-01-07 00:56:00,27.4,22.3,30.36,SW,231,1.5,1.5,81,0.00,,,0.00,VWS V14.01,2013-01-07 05:56:00,
2013-01-07 00:57:00,27.4,22.3,30.36,SW,236,1.5,1.5,81,0.00,,,0.00,VWS V14.01,2013-01-07 05:57:00,
2013-01-07 00:58:00,27.5,22.4,30.36,WSW,243,1.5,1.5,81,0.00,,,0.00,VWS V14.01,2013-01-07 05:58:00,
2013-01-07 00:59:00,27.5,22.4,30.36,WSW,242,1.5,1.5,81,0.00,,,0.00,VWS V14.01,2013-01-07 05:59:00,
2013-01-07 01:00:00,27.6,22.5,30.36,WSW,242,1.5,1.5,81,0.00,,,0.00,VWS V14.01,2013-01-07 06:00:00,
2013-01-07 01:01:00,27.6,22.5,30.36,WSW,243,1.5,1.5,81,0.00,,,0.00,VWS V14.01,2013-01-07 06:01:00,
2013-01-07 01:02:00,27.6,22.5,30.36,WSW,243,1.5,1.5,81,0.00,,,0.00,VWS V14.01,2013-01-07 06:02:00,
2013-01-07 01:03:00,27.6,22.5,30.36,WSW,243,1.5,1.5,81,0.00,,,0.00,VWS V14.01,2013-01-07 06:03:00,
2013-01-07 01:04:00,27.6,22.5,30.36,WSW,243,1.5,1.5,81,0.00,,,0.00,VWS V14.01,2013-01-07 06:04:00,
2013-01-07 01:05:00,27.7,22.6,30.36,WSW,242,1.5,1.5,81,0.00,,,0.00,VWS V14.01,2013-01-07 06:05:00,
2013-01-07 01:06:00,27.7,22.6,30.36,WSW,243,1.5,1.5,81,0.00,,,0.00,VWS V14.01,2013-01-07 06:06:00,
2013-01-07 01:07:00,27.7,22.6,30.36,WSW,243,1.5,1.5,81,0.00,,,0.00,VWS V14.01,2013-01-07 06:07:00,
2013-01-07 01:08:00,27.7,22.6,30.36,WSW,245,1.5,1.5,81,0.00,,,0.00,VWS V14.01,2013-01-07 06:08:00,
2013-01-07 01:09:00,27.7,22.6,30.36,West,265,4.5,4.5,81,0.00,,,0.00,VWS V14.01,2013-01-07 06:09:00,
2013-01-07 01:10:00,27.7,22.6,30.36,West,269,4.5,4.5,81,0.00,,,0.00,VWS V14.01,2013-01-07 06:10:00,
2013-01-07 01:11:00,27.8,22.7,30.36,West,269,3.0,4.5,81,0.00,,,0.00,VWS V14.01,2013-01-07 06:11:00,
2013-01-07 01:12:00,27.8,22.7,30.36,West,269,1.5,3.0,81,0.00,,,0.00,VWS V14.01,2013-01-07 06:12:00,
2013-01-07 01:13:00,27.8,22.7,30.36,West,265,4.5,4.5,81,0.00,,,0.00,VWS V14.01,2013-01-07 06:13:00,
2013-01-07 01:14:00,27.9,22.8,30.36,West,265,3.0,4.5,81,0.00,,,0.00,VWS V14.01,2013-01-07 06:14:00,
2013-01-07 01:15:00,27.9,22.8,30.36,West,262,4.5,4.5,81,0.00,,,0.00,VWS V14.01,2013-01-07 06:15:00,
2013-01-07 01:16:00,27.9,22.8,30.36,WSW,243,4.5,4.5,81,0.00,,,0.00,VWS V14.01,2013-01-07 06:16:00,
2013-01-07 01:17:00,28.0,22.9,30.36,WSW,254,3.0,4.5,81,0.00,,,0.00,VWS V14.01,2013-01-07 06:17:00,
2013-01-07 01:18:00,28.0,22.9,30.37,West,259,3.0,4.5,81,0.00,,,0.00,VWS V14.01,2013-01-07 06:18:00,
2013-01-07 01:19:00,28.1,23.0,30.37,West,272,4.5,4.5,81,0.00,,,0.00,VWS V14.01,2013-01-07 06:19:00,
2013-01-07 01:20:00,28.1,23.0,30.37,West,264,3.0,4.5,81,0.00,,,0.00,VWS V14.01,2013-01-07 06:20:00,
2013-01-07 01:21:00,28.1,23.0,30.37,West,264,4.5,4.5,81,0.00,,,0.00,VWS V14.01,2013-01-07 06:21:00,
2013-01-07 01:22:00,28.1,23.0,30.37,WSW,252,4.5,4.5,81,0.00,,,0.00,VWS V14.01,2013-01-07 06:22:00,
2013-01-07 01:23:00,28.2,23.1,30.37,WSW,245,6.0,6.0,81,0.00,,,0.00,VWS V14.01,2013-01-07 06:23:00,
2013-01-07 01:24:00,28.2,23.1,30.37,WSW,256,4.5,7.5,81,0.00,,,0.00,VWS V14.01,2013-01-07 06:24:00,
2013-01-07 01:25:00,28.2,23.1,30.37,SW,227,3.0,4.5,81,0.00,,,0.00,VWS V14.01,2013-01-07 06:25:00,
2013-01-07 01:26:00,28.2,23.1,30.37,WSW,245,3.0,4.5,81,0.00,,,0.00,VWS V14.01,2013-01-07 06:26:00,
2013-01-07 01:27:00,28.3,23.2,30.37,West,259,3.0,4.5,81,0.00,,,0.00,VWS V14.01,2013-01-07 06:27:00,
2013-01-07 01:28:00,28.3,23.2,30.37,West,277,4.5,4.5,81,0.00,,,0.00,VWS V14.01,2013-01-07 06:28:00,
2013-01-07 01:29:00,28.3,23.2,30.37,West,280,3.0,4.5,81,0.00,,,0.00,VWS V14.01,2013-01-07 06:29:00,
2013-01-07 01:30:00,28.3,23.2,30.36,SW,228,6.0,6.0,81,0.00,,,0.00,VWS V14.01,2013-01-07 06:30:00,
2013-01-07 01:31:00,28.3,23.2,30.36,West,259,3.0,6.0,81,0.00,,,0.00,VWS V14.01,2013-01-07 06:31:00,
2013-01-07 01:32:00,28.3,23.2,30.36,West,276,4.5,6.0,81,0.00,,,0.00,VWS V14.01,2013-01-07 06:32:00,
2013-01-07 01:33:00,28.4,23.0,30.36,WSW,254,3.0,4.5,80,0.00,,,0.00,VWS V14.01,2013-01-07 06:33:00,
2013-01-07 01:34:00,28.4,23.3,30.36,WSW,249,4.5,6.0,81,0.00,,,0.00,VWS V14.01,2013-01-07 06:34:00,
2013-01-07 01:35:00,28.4,23.3,30.36,West,276,4.5,6.0,81,0.00,,,0.00,VWS V14.01,2013-01-07 06:35:00,
2013-01-07 01:36:00,28.4,23.3,30.36,West,269,3.0,4.5,81,0.00,,,0.00,VWS V14.01,2013-01-07 06:36:00,
2013-01-07 01:37:00,28.4,23.3,30.36,West,262,1.5,4.5,81,0.00,,,0.00,VWS V14.01,2013-01-07 06:37:00,
2013-01-07 01:38:00,28.4,23.3,30.36,West,262,3.0,4.5,81,0.00,,,0.00,VWS V14.01,2013-01-07 06:38:00,
2013-01-07 01:39:00,28.4,23.3,30.36,West,266,1.5,4.5,81,0.00,,,0.00,VWS V14.01,2013-01-07 06:39:00,
2013-01-07 01:40:00,28.4,23.3,30.36,SW,224,3.0,3.0,81,0.00,,,0.00,VWS V14.01,2013-01-07 06:40:00,
2013-01-07 01:41:00,28.4,23.3,30.36,WSW,242,1.5,3.0,81,0.00,,,0.00,VWS V14.01,2013-01-07 06:41:00,
2013-01-07 01:42:00,28.4,23.3,30.36,WSW,243,1.5,1.5,81,0.00,,,0.00,VWS V14.01,2013-01-07 06:42:00,
2013-01-07 01:43:00,28.4,23.3,30.36,SW,231,4.5,4.5,81,0.00,,,0.00,VWS V14.01,2013-01-07 06:43:00,
2013-01-07 01:44:00,28.4,23.3,30.35,WSW,237,3.0,4.5,81,0.00,,,0.00,VWS V14.01,2013-01-07 06:44:00,
2013-01-07 01:45:00,28.4,23.3,30.35,WSW,237,1.5,3.0,81,0.00,,,0.00,VWS V14.01,2013-01-07 06:45:00,
2013-01-07 01:46:00,28.4,23.3,30.36,WSW,237,1.5,1.5,81,0.00,,,0.00,VWS V14.01,2013-01-07 06:46:00,
2013-01-07 01:47:00,28.4,23.3,30.36,SW,226,3.0,3.0,81,0.00,,,0.00,VWS V14.01,2013-01-07 06:47:00,
2013-01-07 01:48:00,28.4,23.0,30.36,SW,226,1.5,3.0,80,0.00,,,0.00,VWS V14.01,2013-01-07 06:48:00,
2013-01-07 01:49:00,28.4,23.0,30.35,SW,226,3.0,3.0,80,0.00,,,0.00,VWS V14.01,2013-01-07 06:49:00,
2013-01-07 01:50:00,28.4,23.0,30.36,SW,226,1.5,1.5,80,0.00,,,0.00,VWS V14.01,2013-01-07 06:50:00,
2013-01-07 01:51:00,28.4,23.0,30.36,SW,226,1.5,1.5,80,0.00,,,0.00,VWS V14.01,2013-01-07 06:51:00,
2013-01-07 01:52:00,28.4,23.0,30.36,WSW,257,1.5,1.5,80,0.00,,,0.00,VWS V14.01,2013-01-07 06:52:00,
2013-01-07 01:53:00,28.4,23.3,30.36,WNW,297,3.0,4.5,81,0.00,,,0.00,VWS V14.01,2013-01-07 06:53:00,
2013-01-07 01:54:00,28.4,23.0,30.36,West,276,4.5,4.5,80,0.00,,,0.00,VWS V14.01,2013-01-07 06:54:00,
2013-01-07 01:55:00,28.4,23.0,30.36,West,266,4.5,4.5,80,0.00,,,0.00,VWS V14.01,2013-01-07 06:55:00,
2013-01-07 01:56:00,28.4,23.0,30.36,West,266,3.0,4.5,80,0.00,,,0.00,VWS V14.01,2013-01-07 06:56:00,
2013-01-07 01:57:00,28.4,23.0,30.36,West,268,1.5,3.0,80,0.00,,,0.00,VWS V14.01,2013-01-07 06:57:00,
2013-01-07 01:58:00,28.4,23.0,30.36,NW,322,1.5,4.5,80,0.00,,,0.00,VWS V14.01,2013-01-07 06:58:00,
2013-01-07 01:59:00,28.4,23.0,30.36,NW,322,1.5,1.5,80,0.00,,,0.00,VWS V14.01,2013-01-07 06:59:00,
2013-01-07 02:00:00,28.4,23.0,30.36,NW,323,1.5,1.5,80,0.00,,,0.00,VWS V14.01,2013-01-07 07:00:00,
2013-01-07 02:01:00,28.4,23.0,30.36,NW,323,1.5,1.5,80,0.00,,,0.00,VWS V14.01,2013-01-07 07:01:00,
2013-01-07 02:02:00,28.4,23.0,30.36,NW,323,1.5,1.5,80,0.00,,,0.00,VWS V14.01,2013-01-07 07:02:00,
2013-01-07 02:03:00,28.4,23.0,30.36,NW,307,1.5,1.5,80,0.00,,,0.00,VWS V14.01,2013-01-07 07:03:00,
2013-01-07 02:04:00,28.4,23.0,30.36,NW,307,1.5,3.0,80,0.00,,,0.00,VWS V14.01,2013-01-07 07:04:00,
2013-01-07 02:05:00,28.4,23.0,30.36,NW,307,1.5,1.5,80,0.00,,,0.00,VWS V14.01,2013-01-07 07:05:00,
2013-01-07 02:06:00,28.4,23.0,30.36,NW,305,1.5,1.5,80,0.00,,,0.00,VWS V14.01,2013-01-07 07:06:00,
2013-01-07 02:07:00,28.4,23.0,30.36,NW,307,1.5,1.5,80,0.00,,,0.00,VWS V14.01,2013-01-07 07:07:00,
2013-01-07 02:08:00,28.4,23.0,30.36,NW,307,1.5,1.5,80,0.00,,,0.00,VWS V14.01,2013-01-07 07:08:00,
2013-01-07 02:09:00,28.4,23.0,30.36,NW,307,1.5,1.5,80,0.00,,,0.00,VWS V14.01,2013-01-07 07:09:00,
2013-01-07 02:10:00,28.4,23.0,30.36,NW,307,1.5,1.5,80,0.00,,,0.00,VWS V14.01,2013-01-07 07:10:00,
2013-01-07 02:11:00,28.4,23.0,30.36,NW,306,1.5,1.5,80,0.00,,,0.00,VWS V14.01,2013-01-07 07:11:00,
2013-01-07 02:12:00,28.4,23.3,30.36,NW,307,1.5,1.5,81,0.00,,,0.00,VWS V14.01,2013-01-07 07:12:00,
2013-01-07 02:13:00,28.4,23.3,30.36,NW,307,1.5,1.5,81,0.00,,,0.00,VWS V14.01,2013-01-07 07:13:00,
2013-01-07 02:14:00,28.4,23.3,30.36,NW,305,1.5,1.5,81,0.00,,,0.00,VWS V14.01,2013-01-07 07:14:00,
2013-01-07 02:15:00,28.4,23.3,30.36,NW,305,1.5,1.5,81,0.00,,,0.00,VWS V14.01,2013-01-07 07:15:00,
2013-01-07 02:16:00,28.4,23.3,30.36,NW,307,1.5,1.5,81,0.00,,,0.00,VWS V14.01,2013-01-07 07:16:00,
2013-01-07 02:17:00,28.3,23.2,30.36,NW,306,1.5,1.5,81,0.00,,,0.00,VWS V14.01,2013-01-07 07:17:00,
2013-01-07 02:18:00,28.3,23.2,30.36,NW,307,1.5,1.5,81,0.00,,,0.00,VWS V14.01,2013-01-07 07:18:00,
2013-01-07 02:19:00,28.3,23.2,30.36,NW,307,1.5,1.5,81,0.00,,,0.00,VWS V14.01,2013-01-07 07:19:00,
2013-01-07 02:20:00,28.3,22.9,30.36,NW,306,1.5,1.5,80,0.00,,,0.00,VWS V14.01,2013-01-07 07:20:00,
2013-01-07 02:21:00,28.3,22.9,30.36,NW,307,1.5,1.5,80,0.00,,,0.00,VWS V14.01,2013-01-07 07:21:00,
2013-01-07 02:22:00,28.3,22.9,30.36,NW,307,1.5,1.5,80,0.00,,,0.00,VWS V14.01,2013-01-07 07:22:00,
2013-01-07 02:23:00,28.3,22.9,30.36,NW,307,1.5,1.5,80,0.00,,,0.00,VWS V14.01,2013-01-07 07:23:00,
2013-01-07 02:24:00,28.3,23.2,30.36,NW,306,1.5,1.5,81,0.00,,,0.00,VWS V14.01,2013-01-07 07:24:00,
2013-01-07 02:25:00,28.3,23.2,30.36,NW,307,1.5,1.5,81,0.00,,,0.00,VWS V14.01,2013-01-07 07:25:00,
2013-01-07 02:26:00,28.3,23.2,30.36,NW,305,1.5,1.5,81,0.00,,,0.00,VWS V14.01,2013-01-07 07:26:00,
2013-01-07 02:27:00,28.3,23.2,30.36,NW,307,1.5,1.5,81,0.00,,,0.00,VWS V14.01,2013-01-07 07:27:00,
2013-01-07 02:28:00,28.3,22.9,30.36,NW,307,1.5,1.5,80,0.00,,,0.00,VWS V14.01,2013-01-07 07:28:00,
2013-01-07 02:29:00,28.3,22.9,30.36,NW,305,1.5,1.5,80,0.00,,,0.00,VWS V14.01,2013-01-07 07:29:00,
2013-01-07 02:30:00,28.3,23.2,30.36,NW,307,1.5,1.5,81,0.00,,,0.00,VWS V14.01,2013-01-07 07:30:00,
2013-01-07 02:31:00,28.3,23.2,30.36,NW,307,1.5,1.5,81,0.00,,,0.00,VWS V14.01,2013-01-07 07:31:00,
2013-01-07 02:32:00,28.3,23.2,30.37,NW,307,1.5,1.5,81,0.00,,,0.00,VWS V14.01,2013-01-07 07:32:00,
2013-01-07 02:33:00,28.3,23.2,30.37,NW,307,1.5,1.5,81,0.00,,,0.00,VWS V14.01,2013-01-07 07:33:00,
2013-01-07 02:34:00,28.3,23.2,30.37,NW,305,1.5,1.5,81,0.00,,,0.00,VWS V14.01,2013-01-07 07:34:00,
2013-01-07 02:35:00,28.3,23.2,30.37,NW,305,1.5,1.5,81,0.00,,,0.00,VWS V14.01,2013-01-07 07:35:00,
2013-01-07 02:36:00,28.3,23.2,30.37,NW,307,1.5,1.5,81,0.00,,,0.00,VWS V14.01,2013-01-07 07:36:00,
2013-01-07 02:37:00,28.3,23.2,30.37,NW,305,1.5,1.5,81,0.00,,,0.00,VWS V14.01,2013-01-07 07:37:00,
2013-01-07 02:38:00,28.3,23.2,30.37,NW,307,1.5,1.5,81,0.00,,,0.00,VWS V14.01,2013-01-07 07:38:00,
2013-01-07 02:39:00,28.3,23.2,30.37,NW,307,1.5,1.5,81,0.00,,,0.00,VWS V14.01,2013-01-07 07:39:00,
2013-01-07 02:40:00,28.3,23.2,30.37,NW,305,1.5,1.5,81,0.00,,,0.00,VWS V14.01,2013-01-07 07:40:00,
2013-01-07 02:41:00,28.3,23.2,30.37,NW,305,1.5,1.5,81,0.00,,,0.00,VWS V14.01,2013-01-07 07:41:00,
2013-01-07 02:42:00,28.3,23.5,30.38,WNW,285,1.5,1.5,82,0.00,,,0.00,VWS V14.01,2013-01-07 07:42:00,
2013-01-07 02:43:00,28.3,23.2,30.38,West,279,3.0,3.0,81,0.00,,,0.00,VWS V14.01,2013-01-07 07:43:00,
2013-01-07 02:44:00,28.4,23.3,30.38,West,279,1.5,3.0,81,0.00,,,0.00,VWS V14.01,2013-01-07 07:44:00,
2013-01-07 02:45:00,28.4,23.3,30.38,West,280,1.5,4.5,81,0.00,,,0.00,VWS V14.01,2013-01-07 07:45:00,
2013-01-07 02:46:00,28.4,23.3,30.38,West,280,3.0,4.5,81,0.00,,,0.00,VWS V14.01,2013-01-07 07:46:00,
2013-01-07 02:47:00,28.4,23.3,30.38,West,266,3.0,4.5,81,0.00,,,0.00,VWS V14.01,2013-01-07 07:47:00,
2013-01-07 02:48:00,28.4,23.3,30.38,West,274,3.0,4.5,81,0.00,,,0.00,VWS V14.01,2013-01-07 07:48:00,
2013-01-07 02:49:00,28.5,23.4,30.38,WNW,285,3.0,4.5,81,0.00,,,0.00,VWS V14.01,2013-01-07 07:49:00,
2013-01-07 02:50:00,28.5,23.4,30.38,West,264,4.5,4.5,81,0.00,,,0.00,VWS V14.01,2013-01-07 07:50:00,
2013-01-07 02:51:00,28.5,23.4,30.38,West,265,3.0,4.5,81,0.00,,,0.00,VWS V14.01,2013-01-07 07:51:00,
2013-01-07 02:52:00,28.5,23.4,30.38,West,271,4.5,4.5,81,0.00,,,0.00,VWS V14.01,2013-01-07 07:52:00,
2013-01-07 02:53:00,28.5,23.4,30.38,West,269,4.5,6.0,81,0.00,,,0.00,VWS V14.01,2013-01-07 07:53:00,
2013-01-07 02:54:00,28.6,23.5,30.38,WSW,250,3.0,4.5,81,0.00,,,0.00,VWS V14.01,2013-01-07 07:54:00,
2013-01-07 02:55:00,28.6,23.5,30.38,West,269,4.5,4.5,81,0.00,,,0.00,VWS V14.01,2013-01-07 07:55:00,
2013-01-07 02:56:00,28.6,23.5,30.38,WSW,249,3.0,6.0,81,0.00,,,0.00,VWS V14.01,2013-01-07 07:56:00,
2013-01-07 02:57:00,28.6,23.5,30.38,WSW,242,4.5,4.5,81,0.00,,,0.00,VWS V14.01,2013-01-07 07:57:00,
2013-01-07 02:58:00,28.6,23.5,30.38,West,261,4.5,4.5,81,0.00,,,0.00,VWS V14.01,2013-01-07 07:58:00,
2013-01-07 02:59:00,28.6,23.5,30.38,WSW,248,4.5,4.5,81,0.00,,,0.00,VWS V14.01,2013-01-07 07:59:00,
2013-01-07 03:00:00,28.6,23.5,30.38,West,265,3.0,4.5,81,0.00,,,0.00,VWS V14.01,2013-01-07 08:00:00,
2013-01-07 03:01:00,28.6,23.5,30.38,West,264,1.5,4.5,81,0.00,,,0.00,VWS V14.01,2013-01-07 08:01:00,
2013-01-07 03:02:00,28.6,23.5,30.38,WSW,246,3.0,4.5,81,0.00,,,0.00,VWS V14.01,2013-01-07 08:02:00,
2013-01-07 03:03:00,28.6,23.5,30.38,West,269,4.5,4.5,81,0.00,,,0.00,VWS V14.01,2013-01-07 08:03:00,
2013-01-07 03:04:00,28.6,23.5,30.38,WSW,245,3.0,6.0,81,0.00,,,0.00,VWS V14.01,2013-01-07 08:04:00,
2013-01-07 03:05:00,28.6,23.5,30.38,WSW,240,3.0,4.5,81,0.00,,,0.00,VWS V14.01,2013-01-07 08:05:00,
2013-01-07 03:06:00,28.6,23.5,30.38,WSW,245,4.5,6.0,81,0.00,,,0.00,VWS V14.01,2013-01-07 08:06:00,
2013-01-07 03:07:00,28.6,23.5,30.38,WSW,240,4.5,4.5,81,0.00,,,0.00,VWS V14.01,2013-01-07 08:07:00,
2013-01-07 03:08:00,28.6,23.5,30.38,WSW,257,3.0,4.5,81,0.00,,,0.00,VWS V14.01,2013-01-07 08:08:00,
2013-01-07 03:09:00,28.6,23.5,30.38,WSW,237,3.0,4.5,81,0.00,,,0.00,VWS V14.01,2013-01-07 08:09:00,
2013-01-07 03:10:00,28.6,23.5,30.38,WSW,258,3.0,4.5,81,0.00,,,0.00,VWS V14.01,2013-01-07 08:10:00,
2013-01-07 03:11:00,28.6,23.5,30.38,West,271,3.0,4.5,81,0.00,,,0.00,VWS V14.01,2013-01-07 08:11:00,
2013-01-07 03:12:00,28.6,23.5,30.38,WSW,255,1.5,4.5,81,0.00,,,0.00,VWS V14.01,2013-01-07 08:12:00,
2013-01-07 03:13:00,28.5,23.4,30.38,SW,229,4.5,4.5,81,0.00,,,0.00,VWS V14.01,2013-01-07 08:13:00,
2013-01-07 03:14:00,28.5,23.4,30.38,SW,231,1.5,4.5,81,0.00,,,0.00,VWS V14.01,2013-01-07 08:14:00,
2013-01-07 03:15:00,28.5,23.4,30.38,SW,228,4.5,4.5,81,0.00,,,0.00,VWS V14.01,2013-01-07 08:15:00,
2013-01-07 03:16:00,28.5,23.4,30.38,WSW,245,3.0,4.5,81,0.00,,,0.00,VWS V14.01,2013-01-07 08:16:00,
2013-01-07 03:17:00,28.5,23.4,30.38,WSW,251,4.5,4.5,81,0.00,,,0.00,VWS V14.01,2013-01-07 08:17:00,
2013-01-07 03:18:00,28.5,23.4,30.38,WSW,258,3.0,4.5,81,0.00,,,0.00,VWS V14.01,2013-01-07 08:18:00,
2013-01-07 03:19:00,28.5,23.4,30.38,WSW,247,3.0,4.5,81,0.00,,,0.00,VWS V14.01,2013-01-07 08:19:00,
2013-01-07 03:20:00,28.4,23.3,30.38,WSW,248,3.0,3.0,81,0.00,,,0.00,VWS V14.01,2013-01-07 08:20:00,
2013-01-07 03:21:00,28.5,23.4,30.38,WSW,248,3.0,3.0,81,0.00,,,0.00,VWS V14.01,2013-01-07 08:21:00,
2013-01-07 03:22:00,28.5,23.4,30.38,West,259,3.0,3.0,81,0.00,,,0.00,VWS V14.01,2013-01-07 08:22:00,
2013-01-07 03:23:00,28.5,23.4,30.38,WSW,243,4.5,4.5,81,0.00,,,0.00,VWS V14.01,2013-01-07 08:23:00,
2013-01-07 03:24:00,28.5,23.4,30.38,WSW,243,1.5,4.5,81,0.00,,,0.00,VWS V14.01,2013-01-07 08:24:00,
2013-01-07 03:25:00,28.4,23.3,30.38,WSW,244,1.5,3.0,81,0.00,,,0.00,VWS V14.01,2013-01-07 08:25:00,
2013-01-07 03:26:00,28.5,23.4,30.38,WSW,244,3.0,3.0,81,0.00,,,0.00,VWS V14.01,2013-01-07 08:26:00,
2013-01-07 03:27:00,28.5,23.4,30.38,WSW,244,3.0,3.0,81,0.00,,,0.00,VWS V14.01,2013-01-07 08:27:00,
2013-01-07 03:28:00,28.5,23.4,30.38,West,261,3.0,4.5,81,0.00,,,0.00,VWS V14.01,2013-01-07 08:28:00,
2013-01-07 03:29:00,28.5,23.4,30.38,WNW,283,3.0,4.5,81,0.00,,,0.00,VWS V14.01,2013-01-07 08:29:00,
2013-01-07 03:30:00,28.4,23.3,30.38,West,265,3.0,4.5,81,0.00,,,0.00,VWS V14.01,2013-01-07 08:30:00,
2013-01-07 03:31:00,28.4,23.3,30.38,WSW,255,4.5,4.5,81,0.00,,,0.00,VWS V14.01,2013-01-07 08:31:00,
2013-01-07 03:32:00,28.5,23.4,30.38,West,273,4.5,4.5,81,0.00,,,0.00,VWS V14.01,2013-01-07 08:32:00,
2013-01-07 03:33:00,28.5,23.4,30.38,West,273,1.5,4.5,81,0.00,,,0.00,VWS V14.01,2013-01-07 08:33:00,
2013-01-07 03:34:00,28.5,23.4,30.38,West,273,1.5,1.5,81,0.00,,,0.00,VWS V14.01,2013-01-07 08:34:00,
2013-01-07 03:35:00,28.4,23.3,30.38,WNW,287,3.0,4.5,81,0.00,,,0.00,VWS V14.01,2013-01-07 08:35:00,
2013-01-07 03:36:00,28.5,23.4,30.38,West,269,4.5,4.5,81,0.00,,,0.00,VWS V14.01,2013-01-07 08:36:00,
2013-01-07 03:37:00,28.4,23.3,30.38,West,278,3.0,6.0,81,0.00,,,0.00,VWS V14.01,2013-01-07 08:37:00,
2013-01-07 03:38:00,28.5,23.4,30.38,West,278,3.0,3.0,81,0.00,,,0.00,VWS V14.01,2013-01-07 08:38:00,
2013-01-07 03:39:00,28.4,23.3,30.38,West,278,1.5,3.0,81,0.00,,,0.00,VWS V14.01,2013-01-07 08:39:00,
2013-01-07 03:40:00,28.4,23.3,30.38,West,278,1.5,1.5,81,0.00,,,0.00,VWS V14.01,2013-01-07 08:40:00,
2013-01-07 03:41:00,28.4,23.3,30.38,SW,229,3.0,3.0,81,0.00,,,0.00,VWS V14.01,2013-01-07 08:41:00,
2013-01-07 03:42:00,28.4,23.3,30.38,SW,228,1.5,3.0,81,0.00,,,0.00,VWS V14.01,2013-01-07 08:42:00,
2013-01-07 03:43:00,28.4,23.3,30.38,SW,228,1.5,1.5,81,0.00,,,0.00,VWS V14.01,2013-01-07 08:43:00,
2013-01-07 03:44:00,28.4,23.3,30.38,SW,229,3.0,3.0,81,0.00,,,0.00,VWS V14.01,2013-01-07 08:44:00,
2013-01-07 03:45:00,28.4,23.3,30.38,SW,228,1.5,1.5,81,0.00,,,0.00,VWS V14.01,2013-01-07 08:45:00,
2013-01-07 03:46:00,28.4,23.3,30.38,SW,228,1.5,1.5,81,0.00,,,0.00,VWS V14.01,2013-01-07 08:46:00,
2013-01-07 03:47:00,28.4,23.3,30.38,SW,228,1.5,1.5,81,0.00,,,0.00,VWS V14.01,2013-01-07 08:47:00,
2013-01-07 03:48:00,28.4,23.6,30.38,SW,228,1.5,1.5,82,0.00,,,0.00,VWS V14.01,2013-01-07 08:48:00,
2013-01-07 03:49:00,28.4,23.6,30.38,SW,229,1.5,1.5,82,0.00,,,0.00,VWS V14.01,2013-01-07 08:49:00,
2013-01-07 03:50:00,28.4,23.6,30.38,SW,228,1.5,3.0,82,0.00,,,0.00,VWS V14.01,2013-01-07 08:50:00,
2013-01-07 03:51:00,28.4,23.6,30.38,WSW,237,3.0,3.0,82,0.00,,,0.00,VWS V14.01,2013-01-07 08:51:00,
2013-01-07 03:52:00,28.4,23.6,30.38,WSW,237,3.0,3.0,82,0.00,,,0.00,VWS V14.01,2013-01-07 08:52:00,
2013-01-07 03:53:00,28.4,23.6,30.38,SW,236,1.5,3.0,82,0.00,,,0.00,VWS V14.01,2013-01-07 08:53:00,
2013-01-07 03:54:00,28.4,23.6,30.38,SW,236,1.5,1.5,82,0.00,,,0.00,VWS V14.01,2013-01-07 08:54:00,
2013-01-07 03:55:00,28.3,23.5,30.38,WSW,248,1.5,3.0,82,0.00,,,0.00,VWS V14.01,2013-01-07 08:55:00,
2013-01-07 03:56:00,28.3,23.5,30.38,WSW,248,1.5,3.0,82,0.00,,,0.00,VWS V14.01,2013-01-07 08:56:00,
2013-01-07 03:57:00,28.3,23.5,30.38,WSW,248,1.5,1.5,82,0.00,,,0.00,VWS V14.01,2013-01-07 08:57:00,
2013-01-07 03:58:00,28.3,23.5,30.38,WSW,248,1.5,1.5,82,0.00,,,0.00,VWS V14.01,2013-01-07 08:58:00,
2013-01-07 03:59:00,28.2,23.4,30.38,WSW,248,1.5,1.5,82,0.00,,,0.00,VWS V14.01,2013-01-07 08:59:00,
2013-01-07 04:00:00,28.2,23.4,30.38,WSW,248,1.5,1.5,82,0.00,,,0.00,VWS V14.01,2013-01-07 09:00:00,
2013-01-07 04:01:00,28.2,23.4,30.38,WSW,248,1.5,1.5,82,0.00,,,0.00,VWS V14.01,2013-01-07 09:01:00,
2013-01-07 04:02:00,28.2,23.4,30.38,WSW,249,1.5,3.0,82,0.00,,,0.00,VWS V14.01,2013-01-07 09:02:00,
2013-01-07 04:03:00,28.2,23.4,30.38,West,276,3.0,4.5,82,0.00,,,0.00,VWS V14.01,2013-01-07 09:03:00,
2013-01-07 04:04:00,28.2,23.4,30.38,West,276,1.5,3.0,82,0.00,,,0.00,VWS V14.01,2013-01-07 09:04:00,
2013-01-07 04:05:00,28.1,23.3,30.39,West,276,1.5,1.5,82,0.00,,,0.00,VWS V14.01,2013-01-07 09:05:00,
2013-01-07 04:06:00,28.1,23.3,30.39,West,276,3.0,3.0,82,0.00,,,0.00,VWS V14.01,2013-01-07 09:06:00,
2013-01-07 04:07:00,28.1,23.3,30.38,West,276,1.5,3.0,82,0.00,,,0.00,VWS V14.01,2013-01-07 09:07:00,
2013-01-07 04:08:00,28.0,23.2,30.39,West,276,1.5,1.5,82,0.00,,,0.00,VWS V14.01,2013-01-07 09:08:00,
2013-01-07 04:09:00,28.0,23.2,30.38,West,276,1.5,1.5,82,0.00,,,0.00,VWS V14.01,2013-01-07 09:09:00,
2013-01-07 04:10:00,27.9,23.1,30.39,West,276,1.5,1.5,82,0.00,,,0.00,VWS V14.01,2013-01-07 09:10:00,
2013-01-07 04:11:00,27.9,23.1,30.39,West,276,1.5,1.5,82,0.00,,,0.00,VWS V14.01,2013-01-07 09:11:00,
2013-01-07 04:12:00,27.8,23.0,30.39,West,276,1.5,1.5,82,0.00,,,0.00,VWS V14.01,2013-01-07 09:12:00,
2013-01-07 04:13:00,27.8,23.0,30.38,West,276,1.5,1.5,82,0.00,,,0.00,VWS V14.01,2013-01-07 09:13:00,
2013-01-07 04:14:00,27.7,22.9,30.38,West,276,1.5,1.5,82,0.00,,,0.00,VWS V14.01,2013-01-07 09:14:00,
2013-01-07 04:15:00,27.7,22.9,30.38,West,276,1.5,1.5,82,0.00,,,0.00,VWS V14.01,2013-01-07 09:15:00,
2013-01-07 04:16:00,27.6,22.8,30.39,West,276,1.5,1.5,82,0.00,,,0.00,VWS V14.01,2013-01-07 09:16:00,
2013-01-07 04:17:00,27.6,22.8,30.39,West,276,1.5,1.5,82,0.00,,,0.00,VWS V14.01,2013-01-07 09:17:00,
2013-01-07 04:18:00,27.6,23.1,30.38,West,276,3.0,3.0,83,0.00,,,0.00,VWS V14.01,2013-01-07 09:18:00,
2013-01-07 04:19:00,27.5,23.0,30.39,West,276,1.5,3.0,83,0.00,,,0.00,VWS V14.01,2013-01-07 09:19:00,
2013-01-07 04:20:00,27.5,23.0,30.38,West,271,3.0,3.0,83,0.00,,,0.00,VWS V14.01,2013-01-07 09:20:00,
2013-01-07 04:21:00,27.4,22.9,30.38,West,271,3.0,3.0,83,0.00,,,0.00,VWS V14.01,2013-01-07 09:21:00,
2013-01-07 04:22:00,27.4,22.9,30.39,West,271,1.5,3.0,83,0.00,,,0.00,VWS V14.01,2013-01-07 09:22:00,
2013-01-07 04:23:00,27.4,22.9,30.39,West,271,1.5,1.5,83,0.00,,,0.00,VWS V14.01,2013-01-07 09:23:00,
2013-01-07 04:24:00,27.3,22.8,30.39,West,271,1.5,1.5,83,0.00,,,0.00,VWS V14.01,2013-01-07 09:24:00,
2013-01-07 04:25:00,27.3,22.8,30.38,West,271,1.5,1.5,83,0.00,,,0.00,VWS V14.01,2013-01-07 09:25:00,
2013-01-07 04:26:00,27.2,22.7,30.38,West,271,3.0,3.0,83,0.00,,,0.00,VWS V14.01,2013-01-07 09:26:00,
2013-01-07 04:27:00,27.2,22.7,30.38,West,271,3.0,3.0,83,0.00,,,0.00,VWS V14.01,2013-01-07 09:27:00,
2013-01-07 04:28:00,27.2,22.7,30.38,West,271,1.5,3.0,83,0.00,,,0.00,VWS V14.01,2013-01-07 09:28:00,
2013-01-07 04:29:00,27.1,22.6,30.38,West,271,3.0,3.0,83,0.00,,,0.00,VWS V14.01,2013-01-07 09:29:00,
2013-01-07 04:30:00,27.1,22.6,30.39,West,271,1.5,1.5,83,0.00,,,0.00,VWS V14.01,2013-01-07 09:30:00,
2013-01-07 04:31:00,27.1,22.6,30.39,West,271,3.0,3.0,83,0.00,,,0.00,VWS V14.01,2013-01-07 09:31:00,
2013-01-07 04:32:00,27.0,22.5,30.39,West,271,1.5,3.0,83,0.00,,,0.00,VWS V14.01,2013-01-07 09:32:00,
2013-01-07 04:33:00,27.0,22.8,30.39,West,271,3.0,3.0,84,0.00,,,0.00,VWS V14.01,2013-01-07 09:33:00,
2013-01-07 04:34:00,27.0,22.8,30.38,West,270,1.5,3.0,84,0.00,,,0.00,VWS V14.01,2013-01-07 09:34:00,
2013-01-07 04:35:00,26.9,22.7,30.39,West,271,1.5,1.5,84,0.00,,,0.00,VWS V14.01,2013-01-07 09:35:00,
2013-01-07 04:36:00,26.8,22.6,30.39,West,271,1.5,3.0,84,0.00,,,0.00,VWS V14.01,2013-01-07 09:36:00,
2013-01-07 04:37:00,26.8,22.6,30.39,West,268,3.0,3.0,84,0.00,,,0.00,VWS V14.01,2013-01-07 09:37:00,
2013-01-07 04:38:00,26.8,22.6,30.39,West,267,3.0,3.0,84,0.00,,,0.00,VWS V14.01,2013-01-07 09:38:00,
2013-01-07 04:39:00,26.8,22.6,30.39,West,268,3.0,3.0,84,0.00,,,0.00,VWS V14.01,2013-01-07 09:39:00,
2013-01-07 04:40:00,26.7,22.5,30.39,West,268,3.0,3.0,84,0.00,,,0.00,VWS V14.01,2013-01-07 09:40:00,
2013-01-07 04:41:00,26.7,22.5,30.39,West,267,3.0,3.0,84,0.00,,,0.00,VWS V14.01,2013-01-07 09:41:00,
2013-01-07 04:42:00,26.7,22.5,30.39,WSW,254,3.0,4.5,84,0.00,,,0.00,VWS V14.01,2013-01-07 09:42:00,
2013-01-07 04:43:00,26.6,22.4,30.39,WSW,247,3.0,3.0,84,0.00,,,0.00,VWS V14.01,2013-01-07 09:43:00,
2013-01-07 04:44:00,26.5,22.3,30.39,WSW,247,3.0,3.0,84,0.00,,,0.00,VWS V14.01,2013-01-07 09:44:00,
2013-01-07 04:45:00,26.4,22.2,30.39,WSW,247,3.0,3.0,84,0.00,,,0.00,VWS V14.01,2013-01-07 09:45:00,
2013-01-07 04:46:00,26.4,22.5,30.39,WSW,247,3.0,3.0,85,0.00,,,0.00,VWS V14.01,2013-01-07 09:46:00,
2013-01-07 04:47:00,26.4,22.5,30.39,WSW,247,3.0,3.0,85,0.00,,,0.00,VWS V14.01,2013-01-07 09:47:00,
2013-01-07 04:48:00,26.4,22.5,30.39,WSW,247,3.0,3.0,85,0.00,,,0.00,VWS V14.01,2013-01-07 09:48:00,
2013-01-07 04:50:00,26.3,22.4,30.39,WSW,247,3.0,3.0,85,0.00,,,0.00,VWS V14.01,2013-01-07 09:50:00,
2013-01-07 04:51:00,26.3,22.4,30.39,WSW,247,3.0,3.0,85,0.00,,,0.00,VWS V14.01,2013-01-07 09:51:00,
2013-01-07 04:52:00,26.3,22.4,30.39,WSW,247,3.0,3.0,85,0.00,,,0.00,VWS V14.01,2013-01-07 09:52:00,
2013-01-07 04:53:00,26.3,22.4,30.39,WSW,247,3.0,3.0,85,0.00,,,0.00,VWS V14.01,2013-01-07 09:53:00,
2013-01-07 04:54:00,26.2,22.3,30.39,WSW,247,3.0,3.0,85,0.00,,,0.00,VWS V14.01,2013-01-07 09:54:00,
2013-01-07 04:55:00,26.1,22.2,30.40,WSW,247,1.5,1.5,85,0.00,,,0.00,VWS V14.01,2013-01-07 09:55:00,
2013-01-07 04:56:00,26.1,22.2,30.40,WSW,247,1.5,1.5,85,0.00,,,0.00,VWS V14.01,2013-01-07 09:56:00,
2013-01-07 04:57:00,26.1,22.2,30.40,WSW,247,1.5,1.5,85,0.00,,,0.00,VWS V14.01,2013-01-07 09:57:00,
2013-01-07 04:58:00,26.0,22.4,30.40,WSW,247,3.0,3.0,86,0.00,,,0.00,VWS V14.01,2013-01-07 09:58:00,
2013-01-07 04:59:00,26.1,22.5,30.40,WSW,247,1.5,3.0,86,0.00,,,0.00,VWS V14.01,2013-01-07 09:59:00,
2013-01-07 05:00:00,26.1,22.8,30.40,WSW,247,1.5,3.0,87,0.00,,,0.00,VWS V14.01,2013-01-07 10:00:00,
2013-01-07 05:01:00,26.2,22.9,30.40,WSW,247,1.5,3.0,87,0.00,,,0.00,VWS V14.01,2013-01-07 10:01:00,
2013-01-07 05:02:00,26.2,22.9,30.40,WSW,247,1.5,1.5,87,0.00,,,0.00,VWS V14.01,2013-01-07 10:02:00,
2013-01-07 05:03:00,26.2,22.9,30.40,WSW,247,1.5,3.0,87,0.00,,,0.00,VWS V14.01,2013-01-07 10:03:00,
2013-01-07 05:04:00,26.2,22.9,30.40,WSW,247,1.5,1.5,87,0.00,,,0.00,VWS V14.01,2013-01-07 10:04:00,
2013-01-07 05:05:00,26.3,23.0,30.40,WSW,247,1.5,1.5,87,0.00,,,0.00,VWS V14.01,2013-01-07 10:05:00,
2013-01-07 05:06:00,26.3,23.0,30.40,WSW,247,3.0,3.0,87,0.00,,,0.00,VWS V14.01,2013-01-07 10:06:00,
2013-01-07 05:07:00,26.2,22.9,30.40,WSW,247,3.0,3.0,87,0.00,,,0.00,VWS V14.01,2013-01-07 10:07:00,
2013-01-07 05:08:00,26.2,22.9,30.40,WSW,247,1.5,3.0,87,0.00,,,0.00,VWS V14.01,2013-01-07 10:08:00,
2013-01-07 05:09:00,26.2,22.6,30.40,WSW,247,1.5,1.5,86,0.00,,,0.00,VWS V14.01,2013-01-07 10:09:00,
2013-01-07 05:10:00,26.1,22.5,30.40,WSW,247,1.5,1.5,86,0.00,,,0.00,VWS V14.01,2013-01-07 10:10:00,
2013-01-07 05:11:00,26.1,22.5,30.40,WSW,247,1.5,1.5,86,0.00,,,0.00,VWS V14.01,2013-01-07 10:11:00,
2013-01-07 05:12:00,26.0,22.4,30.40,WSW,247,1.5,1.5,86,0.00,,,0.00,VWS V14.01,2013-01-07 10:12:00,
2013-01-07 05:13:00,26.0,22.4,30.40,WSW,247,1.5,1.5,86,0.00,,,0.00,VWS V14.01,2013-01-07 10:13:00,
2013-01-07 05:14:00,25.9,22.3,30.40,WSW,247,1.5,1.5,86,0.00,,,0.00,VWS V14.01,2013-01-07 10:14:00,
2013-01-07 05:15:00,25.9,22.3,30.40,SW,236,1.5,1.5,86,0.00,,,0.00,VWS V14.01,2013-01-07 10:15:00,
2013-01-07 05:16:00,25.8,22.2,30.40,WSW,237,1.5,1.5,86,0.00,,,0.00,VWS V14.01,2013-01-07 10:16:00,
2013-01-07 05:17:00,25.8,22.2,30.40,WSW,237,1.5,1.5,86,0.00,,,0.00,VWS V14.01,2013-01-07 10:17:00,
2013-01-07 05:18:00,25.7,22.1,30.40,WSW,237,1.5,1.5,86,0.00,,,0.00,VWS V14.01,2013-01-07 10:18:00,
2013-01-07 05:19:00,25.6,22.0,30.40,SW,236,1.5,1.5,86,0.00,,,0.00,VWS V14.01,2013-01-07 10:19:00,
2013-01-07 05:20:00,25.5,21.6,30.40,WSW,237,1.5,1.5,85,0.00,,,0.00,VWS V14.01,2013-01-07 10:20:00,
2013-01-07 05:21:00,25.4,21.5,30.40,WSW,237,1.5,1.5,85,0.00,,,0.00,VWS V14.01,2013-01-07 10:21:00,
2013-01-07 05:22:00,25.3,21.4,30.40,WSW,237,1.5,1.5,85,0.00,,,0.00,VWS V14.01,2013-01-07 10:22:00,
2013-01-07 05:23:00,25.2,21.4,30.40,WSW,237,1.5,1.5,85,0.00,,,0.00,VWS V14.01,2013-01-07 10:23:00,
2013-01-07 05:24:00,25.1,21.5,30.40,WSW,237,1.5,1.5,86,0.00,,,0.00,VWS V14.01,2013-01-07 10:24:00,
2013-01-07 05:25:00,25.0,21.4,30.40,WSW,237,1.5,1.5,86,0.00,,,0.00,VWS V14.01,2013-01-07 10:25:00,
2013-01-07 05:26:00,24.9,21.3,30.40,SW,236,1.5,1.5,86,0.00,,,0.00,VWS V14.01,2013-01-07 10:26:00,
2013-01-07 05:27:00,24.9,21.3,30.40,WSW,237,1.5,1.5,86,0.00,,,0.00,VWS V14.01,2013-01-07 10:27:00,
2013-01-07 05:28:00,24.8,21.5,30.40,SW,236,1.5,1.5,87,0.00,,,0.00,VWS V14.01,2013-01-07 10:28:00,
2013-01-07 05:29:00,24.7,21.4,30.41,WSW,237,1.5,1.5,87,0.00,,,0.00,VWS V14.01,2013-01-07 10:29:00,
2013-01-07 05:30:00,24.7,21.4,30.41,WSW,243,3.0,3.0,87,0.00,,,0.00,VWS V14.01,2013-01-07 10:30:00,
2013-01-07 05:31:00,24.7,21.4,30.41,WSW,243,3.0,3.0,87,0.00,,,0.00,VWS V14.01,2013-01-07 10:31:00,
2013-01-07 05:32:00,24.7,21.7,30.41,WSW,242,1.5,4.5,88,0.00,,,0.00,VWS V14.01,2013-01-07 10:32:00,
2013-01-07 05:33:00,24.7,21.4,30.41,WSW,243,1.5,1.5,87,0.00,,,0.00,VWS V14.01,2013-01-07 10:33:00,
2013-01-07 05:34:00,24.6,21.3,30.41,WSW,243,1.5,1.5,87,0.00,,,0.00,VWS V14.01,2013-01-07 10:34:00,
2013-01-07 05:35:00,24.5,21.2,30.41,WSW,243,1.5,1.5,87,0.00,,,0.00,VWS V14.01,2013-01-07 10:35:00,
2013-01-07 05:36:00,24.5,21.2,30.41,WSW,243,1.5,1.5,87,0.00,,,0.00,VWS V14.01,2013-01-07 10:36:00,
2013-01-07 05:37:00,24.5,21.5,30.41,WSW,242,1.5,1.5,88,0.00,,,0.00,VWS V14.01,2013-01-07 10:37:00,
2013-01-07 05:38:00,24.5,21.5,30.41,WSW,243,3.0,3.0,88,0.00,,,0.00,VWS V14.01,2013-01-07 10:38:00,
2013-01-07 05:39:00,24.5,21.5,30.41,WSW,243,3.0,3.0,88,0.00,,,0.00,VWS V14.01,2013-01-07 10:39:00,
2013-01-07 05:40:00,24.5,21.5,30.41,WSW,242,3.0,3.0,88,0.00,,,0.00,VWS V14.01,2013-01-07 10:40:00,
2013-01-07 05:41:00,24.5,21.5,30.41,WSW,243,3.0,3.0,88,0.00,,,0.00,VWS V14.01,2013-01-07 10:41:00,
2013-01-07 05:42:00,24.5,21.5,30.41,WSW,243,1.5,3.0,88,0.00,,,0.00,VWS V14.01,2013-01-07 10:42:00,
2013-01-07 05:43:00,24.5,21.5,30.41,WSW,243,1.5,1.5,88,0.00,,,0.00,VWS V14.01,2013-01-07 10:43:00,
2013-01-07 05:44:00,24.4,21.4,30.41,WSW,242,1.5,1.5,88,0.00,,,0.00,VWS V14.01,2013-01-07 10:44:00,
2013-01-07 05:45:00,24.4,21.4,30.41,WSW,242,1.5,1.5,88,0.00,,,0.00,VWS V14.01,2013-01-07 10:45:00,
2013-01-07 05:46:00,24.4,21.4,30.41,WSW,242,1.5,1.5,88,0.00,,,0.00,VWS V14.01,2013-01-07 10:46:00,
2013-01-07 05:47:00,24.4,21.4,30.41,WSW,242,1.5,1.5,88,0.00,,,0.00,VWS V14.01,2013-01-07 10:47:00,
2013-01-07 05:48:00,24.5,21.8,30.41,WSW,242,1.5,1.5,89,0.00,,,0.00,VWS V14.01,2013-01-07 10:48:00,
2013-01-07 05:49:00,24.5,21.8,30.41,WSW,243,1.5,1.5,89,0.00,,,0.00,VWS V14.01,2013-01-07 10:49:00,
2013-01-07 05:50:00,24.5,21.8,30.41,WSW,243,1.5,1.5,89,0.00,,,0.00,VWS V14.01,2013-01-07 10:50:00,
2013-01-07 05:51:00,24.5,21.8,30.41,WSW,243,1.5,1.5,89,0.00,,,0.00,VWS V14.01,2013-01-07 10:51:00,
2013-01-07 05:52:00,24.5,21.5,30.41,WSW,243,1.5,1.5,88,0.00,,,0.00,VWS V14.01,2013-01-07 10:52:00,
2013-01-07 05:53:00,24.5,21.5,30.41,WSW,243,1.5,1.5,88,0.00,,,0.00,VWS V14.01,2013-01-07 10:53:00,
2013-01-07 05:54:00,24.4,21.4,30.41,WSW,243,1.5,1.5,88,0.00,,,0.00,VWS V14.01,2013-01-07 10:54:00,
2013-01-07 05:55:00,24.4,21.4,30.41,SW,220,1.5,1.5,88,0.00,,,0.00,VWS V14.01,2013-01-07 10:55:00,
2013-01-07 05:56:00,24.4,21.7,30.41,SW,220,1.5,1.5,89,0.00,,,0.00,VWS V14.01,2013-01-07 10:56:00,
2013-01-07 05:57:00,24.4,21.7,30.41,SW,220,1.5,1.5,89,0.00,,,0.00,VWS V14.01,2013-01-07 10:57:00,
2013-01-07 05:58:00,24.3,21.6,30.41,SW,220,1.5,1.5,89,0.00,,,0.00,VWS V14.01,2013-01-07 10:58:00,
2013-01-07 05:59:00,24.3,21.6,30.41,SW,220,1.5,1.5,89,0.00,,,0.00,VWS V14.01,2013-01-07 10:59:00,
2013-01-07 06:00:00,24.2,21.2,30.41,SW,220,1.5,1.5,88,0.00,,,0.00,VWS V14.01,2013-01-07 11:00:00,
2013-01-07 06:01:00,24.2,21.2,30.41,SW,220,1.5,1.5,88,0.00,,,0.00,VWS V14.01,2013-01-07 11:01:00,
2013-01-07 06:02:00,24.1,21.1,30.41,SW,220,1.5,1.5,88,0.00,,,0.00,VWS V14.01,2013-01-07 11:02:00,
2013-01-07 06:03:00,24.0,21.0,30.41,SW,220,1.5,1.5,88,0.00,,,0.00,VWS V14.01,2013-01-07 11:03:00,
2013-01-07 06:04:00,23.9,20.9,30.41,South,188,1.5,3.0,88,0.00,,,0.00,VWS V14.01,2013-01-07 11:04:00,
2013-01-07 06:05:00,23.9,20.9,30.41,South,188,1.5,1.5,88,0.00,,,0.00,VWS V14.01,2013-01-07 11:05:00,
2013-01-07 06:06:00,23.9,20.9,30.41,South,188,1.5,1.5,88,0.00,,,0.00,VWS V14.01,2013-01-07 11:06:00,
2013-01-07 06:07:00,23.9,21.2,30.41,South,186,1.5,1.5,89,0.00,,,0.00,VWS V14.01,2013-01-07 11:07:00,
2013-01-07 06:08:00,23.9,21.2,30.41,SE,130,1.5,3.0,89,0.00,,,0.00,VWS V14.01,2013-01-07 11:08:00,
2013-01-07 06:09:00,23.9,21.2,30.41,SE,131,1.5,1.5,89,0.00,,,0.00,VWS V14.01,2013-01-07 11:09:00,
2013-01-07 06:10:00,23.9,21.2,30.41,SE,131,1.5,1.5,89,0.00,,,0.00,VWS V14.01,2013-01-07 11:10:00,
2013-01-07 06:11:00,23.8,21.1,30.41,SE,131,1.5,1.5,89,0.00,,,0.00,VWS V14.01,2013-01-07 11:11:00,
2013-01-07 06:12:00,23.8,21.1,30.41,SE,130,1.5,1.5,89,0.00,,,0.00,VWS V14.01,2013-01-07 11:12:00,
2013-01-07 06:13:00,23.8,21.1,30.41,SE,131,1.5,1.5,89,0.00,,,0.00,VWS V14.01,2013-01-07 11:13:00,
2013-01-07 06:14:00,23.8,21.1,30.41,SE,131,1.5,1.5,89,0.00,,,0.00,VWS V14.01,2013-01-07 11:14:00,
2013-01-07 06:15:00,23.7,21.0,30.41,SE,130,1.5,1.5,89,0.00,,,0.00,VWS V14.01,2013-01-07 11:15:00,
2013-01-07 06:16:00,23.7,21.0,30.41,SE,131,1.5,1.5,89,0.00,,,0.00,VWS V14.01,2013-01-07 11:16:00,
2013-01-07 06:17:00,23.6,20.9,30.41,SE,130,1.5,1.5,89,0.00,,,0.00,VWS V14.01,2013-01-07 11:17:00,
2013-01-07 06:18:00,23.6,20.9,30.42,SE,130,1.5,1.5,89,0.00,,,0.00,VWS V14.01,2013-01-07 11:18:00,
2013-01-07 06:19:00,23.5,20.8,30.42,SE,131,1.5,1.5,89,0.00,,,0.00,VWS V14.01,2013-01-07 11:19:00,
2013-01-07 06:20:00,23.5,20.8,30.42,SE,131,1.5,1.5,89,0.00,,,0.00,VWS V14.01,2013-01-07 11:20:00,
2013-01-07 06:21:00,23.4,20.7,30.42,SE,130,1.5,1.5,89,0.00,,,0.00,VWS V14.01,2013-01-07 11:21:00,
2013-01-07 06:22:00,23.4,20.7,30.42,SE,130,1.5,1.5,89,0.00,,,0.00,VWS V14.01,2013-01-07 11:22:00,
2013-01-07 06:23:00,23.3,20.6,30.42,SE,131,1.5,1.5,89,0.00,,,0.00,VWS V14.01,2013-01-07 11:23:00,
2013-01-07 06:24:00,23.3,20.6,30.42,SE,131,1.5,1.5,89,0.00,,,0.00,VWS V14.01,2013-01-07 11:24:00,
2013-01-07 06:25:00,23.2,20.5,30.42,SE,144,1.5,1.5,89,0.00,,,0.00,VWS V14.01,2013-01-07 11:25:00,
2013-01-07 06:26:00,23.2,20.5,30.42,SE,144,1.5,1.5,89,0.00,,,0.00,VWS V14.01,2013-01-07 11:26:00,
2013-01-07 06:27:00,23.2,20.8,30.42,SE,144,1.5,1.5,90,0.00,,,0.00,VWS V14.01,2013-01-07 11:27:00,
2013-01-07 06:28:00,23.2,20.8,30.42,SE,144,1.5,1.5,90,0.00,,,0.00,VWS V14.01,2013-01-07 11:28:00,
2013-01-07 06:29:00,23.2,20.8,30.43,SE,144,1.5,3.0,90,0.00,,,0.00,VWS V14.01,2013-01-07 11:29:00,
2013-01-07 06:30:00,23.3,20.9,30.43,SE,144,1.5,1.5,90,0.00,,,0.00,VWS V14.01,2013-01-07 11:30:00,
2013-01-07 06:31:00,23.3,20.9,30.43,SE,145,1.5,1.5,90,0.00,,,0.00,VWS V14.01,2013-01-07 11:31:00,
2013-01-07 06:32:00,23.3,20.9,30.43,SE,144,1.5,1.5,90,0.00,,,0.00,VWS V14.01,2013-01-07 11:32:00,
2013-01-07 06:33:00,23.4,21.0,30.43,SE,144,1.5,1.5,90,0.00,,,0.00,VWS V14.01,2013-01-07 11:33:00,
2013-01-07 06:34:00,23.4,21.0,30.43,SE,144,1.5,1.5,90,0.00,,,0.00,VWS V14.01,2013-01-07 11:34:00,
2013-01-07 06:35:00,23.3,20.9,30.43,SE,145,1.5,1.5,90,0.00,,,0.00,VWS V14.01,2013-01-07 11:35:00,
2013-01-07 06:36:00,23.3,20.9,30.43,SE,144,1.5,1.5,90,0.00,,,0.00,VWS V14.01,2013-01-07 11:36:00,
2013-01-07 06:37:00,23.3,20.9,30.43,SE,144,1.5,1.5,90,0.00,,,0.00,VWS V14.01,2013-01-07 11:37:00,
2013-01-07 06:38:00,23.3,20.9,30.43,SE,144,1.5,1.5,90,0.00,,,0.00,VWS V14.01,2013-01-07 11:38:00,
2013-01-07 06:39:00,23.2,20.8,30.43,SE,144,1.5,1.5,90,0.00,,,0.00,VWS V14.01,2013-01-07 11:39:00,
2013-01-07 06:40:00,23.1,20.7,30.43,SE,144,1.5,1.5,90,0.00,,,0.00,VWS V14.01,2013-01-07 11:40:00,
2013-01-07 06:41:00,23.0,20.6,30.43,SE,144,1.5,1.5,90,0.00,,,0.00,VWS V14.01,2013-01-07 11:41:00,
2013-01-07 06:42:00,23.0,20.3,30.43,SE,144,1.5,1.5,89,0.00,,,0.00,VWS V14.01,2013-01-07 11:42:00,
2013-01-07 06:43:00,22.9,20.2,30.43,SE,144,1.5,1.5,89,0.00,,,0.00,VWS V14.01,2013-01-07 11:43:00,
2013-01-07 06:44:00,22.8,20.1,30.44,SE,144,1.5,1.5,89,0.00,,,0.00,VWS V14.01,2013-01-07 11:44:00,
2013-01-07 06:45:00,22.6,19.9,30.44,SE,144,1.5,1.5,89,0.00,,,0.00,VWS V14.01,2013-01-07 11:45:00,
2013-01-07 06:46:00,22.6,19.9,30.44,SE,144,1.5,1.5,89,0.00,,,0.00,VWS V14.01,2013-01-07 11:46:00,
2013-01-07 06:47:00,22.4,19.7,30.44,SE,144,1.5,1.5,89,0.00,,,0.00,VWS V14.01,2013-01-07 11:47:00,
2013-01-07 06:48:00,22.4,19.7,30.44,SE,144,1.5,1.5,89,0.00,,,0.00,VWS V14.01,2013-01-07 11:48:00,
2013-01-07 06:49:00,22.2,19.5,30.44,SE,144,1.5,1.5,89,0.00,,,0.00,VWS V14.01,2013-01-07 11:49:00,
2013-01-07 06:50:00,22.2,19.5,30.44,SE,144,1.5,1.5,89,0.00,,,0.00,VWS V14.01,2013-01-07 11:50:00,
2013-01-07 06:51:00,22.1,19.4,30.44,SE,144,1.5,1.5,89,0.00,,,0.00,VWS V14.01,2013-01-07 11:51:00,
2013-01-07 06:52:00,22.0,19.3,30.44,SE,145,1.5,1.5,89,0.00,,,0.00,VWS V14.01,2013-01-07 11:52:00,
2013-01-07 06:53:00,22.0,19.3,30.44,SE,144,1.5,1.5,89,0.00,,,0.00,VWS V14.01,2013-01-07 11:53:00,
2013-01-07 06:54:00,22.0,19.6,30.44,SE,144,1.5,1.5,90,0.00,,,0.00,VWS V14.01,2013-01-07 11:54:00,
2013-01-07 06:55:00,22.0,19.6,30.44,SE,144,1.5,1.5,90,0.00,,,0.00,VWS V14.01,2013-01-07 11:55:00,
2013-01-07 06:56:00,22.0,19.6,30.44,SE,144,1.5,1.5,90,0.00,,,0.00,VWS V14.01,2013-01-07 11:56:00,
2013-01-07 06:57:00,22.0,19.6,30.44,SE,144,1.5,1.5,90,0.00,,,0.00,VWS V14.01,2013-01-07 11:57:00,
2013-01-07 06:58:00,22.1,20.0,30.44,SE,144,1.5,1.5,91,0.00,,,0.00,VWS V14.01,2013-01-07 11:58:00,
2013-01-07 06:59:00,22.1,20.0,30.44,SE,144,1.5,1.5,91,0.00,,,0.00,VWS V14.01,2013-01-07 11:59:00,
2013-01-07 07:00:00,22.2,20.1,30.45,SE,144,1.5,1.5,91,0.00,,,0.00,VWS V14.01,2013-01-07 12:00:00,
2013-01-07 07:01:00,22.2,20.3,30.45,SE,145,1.5,1.5,92,0.00,,,0.00,VWS V14.01,2013-01-07 12:01:00,
2013-01-07 07:02:00,22.3,20.4,30.45,SE,144,1.5,1.5,92,0.00,,,0.00,VWS V14.01,2013-01-07 12:02:00,
2013-01-07 07:03:00,22.4,20.5,30.45,SE,144,1.5,1.5,92,0.00,,,0.00,VWS V14.01,2013-01-07 12:03:00,
2013-01-07 07:04:00,22.4,20.5,30.45,SE,144,1.5,1.5,92,0.00,,,0.00,VWS V14.01,2013-01-07 12:04:00,
2013-01-07 07:05:00,22.5,20.6,30.45,SE,144,1.5,1.5,92,0.00,,,0.00,VWS V14.01,2013-01-07 12:05:00,
2013-01-07 07:06:00,22.5,20.6,30.45,SE,144,1.5,1.5,92,0.00,,,0.00,VWS V14.01,2013-01-07 12:06:00,
2013-01-07 07:07:00,22.5,20.6,30.45,SE,144,1.5,1.5,92,0.00,,,0.00,VWS V14.01,2013-01-07 12:07:00,
2013-01-07 07:08:00,22.5,20.6,30.45,SE,144,1.5,1.5,92,0.00,,,0.00,VWS V14.01,2013-01-07 12:08:00,
2013-01-07 07:09:00,22.5,20.4,30.45,SE,144,1.5,1.5,91,0.00,,,0.00,VWS V14.01,2013-01-07 12:09:00,
2013-01-07 07:10:00,22.5,20.4,30.45,SE,144,1.5,1.5,91,0.00,,,0.00,VWS V14.01,2013-01-07 12:10:00,
2013-01-07 07:11:00,22.4,20.3,30.45,SE,144,1.5,1.5,91,0.00,,,0.00,VWS V14.01,2013-01-07 12:11:00,
2013-01-07 07:12:00,22.4,20.3,30.45,SE,144,1.5,1.5,91,0.00,,,0.00,VWS V14.01,2013-01-07 12:12:00,
2013-01-07 07:13:00,22.4,20.3,30.45,SE,144,1.5,1.5,91,0.00,,,0.00,VWS V14.01,2013-01-07 12:13:00,
2013-01-07 07:14:00,22.3,20.2,30.45,SE,144,1.5,1.5,91,0.00,,,0.00,VWS V14.01,2013-01-07 12:14:00,
2013-01-07 07:15:00,22.2,20.1,30.44,SE,144,1.5,1.5,91,0.00,,,0.00,VWS V14.01,2013-01-07 12:15:00,
2013-01-07 07:16:00,22.2,20.1,30.44,SE,144,1.5,1.5,91,0.00,,,0.00,VWS V14.01,2013-01-07 12:16:00,
2013-01-07 07:17:00,22.1,20.0,30.44,SE,144,1.5,1.5,91,0.00,,,0.00,VWS V14.01,2013-01-07 12:17:00,
2013-01-07 07:18:00,22.1,20.0,30.45,SE,144,1.5,1.5,91,0.00,,,0.00,VWS V14.01,2013-01-07 12:18:00,
2013-01-07 07:19:00,22.1,20.0,30.45,SE,144,1.5,1.5,91,0.00,,,0.00,VWS V14.01,2013-01-07 12:19:00,
2013-01-07 07:20:00,22.1,20.0,30.45,SE,144,1.5,1.5,91,0.00,,,0.00,VWS V14.01,2013-01-07 12:20:00,
2013-01-07 07:21:00,22.1,20.0,30.45,SE,144,1.5,1.5,91,0.00,,,0.00,VWS V14.01,2013-01-07 12:21:00,
2013-01-07 07:22:00,22.1,20.0,30.45,SE,144,1.5,1.5,91,0.00,,,0.00,VWS V14.01,2013-01-07 12:22:00,
2013-01-07 07:23:00,22.0,19.9,30.45,SE,144,1.5,1.5,91,0.00,,,0.00,VWS V14.01,2013-01-07 12:23:00,
2013-01-07 07:24:00,22.0,19.9,30.45,SE,144,1.5,1.5,91,0.00,,,0.00,VWS V14.01,2013-01-07 12:24:00,
2013-01-07 07:25:00,22.0,19.9,30.45,SE,144,1.5,1.5,91,0.00,,,0.00,VWS V14.01,2013-01-07 12:25:00,
2013-01-07 07:26:00,22.0,19.9,30.45,SE,144,1.5,1.5,91,0.00,,,0.00,VWS V14.01,2013-01-07 12:26:00,
2013-01-07 07:27:00,22.1,20.0,30.45,SE,144,1.5,1.5,91,0.00,,,0.00,VWS V14.01,2013-01-07 12:27:00,
2013-01-07 07:28:00,22.1,20.2,30.45,SE,144,3.0,3.0,92,0.00,,,0.00,VWS V14.01,2013-01-07 12:28:00,
2013-01-07 07:29:00,22.2,20.3,30.45,SE,144,3.0,3.0,92,0.00,,,0.00,VWS V14.01,2013-01-07 12:29:00,
2013-01-07 07:30:00,22.4,20.5,30.45,SE,144,1.5,3.0,92,0.00,,,0.00,VWS V14.01,2013-01-07 12:30:00,
2013-01-07 07:31:00,22.4,20.5,30.45,SE,144,1.5,3.0,92,0.00,,,0.00,VWS V14.01,2013-01-07 12:31:00,
2013-01-07 07:32:00,22.5,20.6,30.45,SE,144,1.5,1.5,92,0.00,,,0.00,VWS V14.01,2013-01-07 12:32:00,
2013-01-07 07:33:00,22.5,20.6,30.45,SE,144,1.5,1.5,92,0.00,,,0.00,VWS V14.01,2013-01-07 12:33:00,
2013-01-07 07:34:00,22.5,20.6,30.45,SE,144,1.5,1.5,92,0.00,,,0.00,VWS V14.01,2013-01-07 12:34:00,
2013-01-07 07:35:00,22.5,20.6,30.45,SE,144,1.5,1.5,92,0.00,,,0.00,VWS V14.01,2013-01-07 12:35:00,
2013-01-07 07:36:00,22.4,20.5,30.45,SE,144,1.5,1.5,92,0.00,,,0.00,VWS V14.01,2013-01-07 12:36:00,
2013-01-07 07:37:00,22.4,20.5,30.45,SE,145,1.5,1.5,92,0.00,,,0.00,VWS V14.01,2013-01-07 12:37:00,
2013-01-07 07:38:00,22.4,20.5,30.45,SE,144,1.5,1.5,92,0.00,,,0.00,VWS V14.01,2013-01-07 12:38:00,
2013-01-07 07:39:00,22.3,20.4,30.45,SE,144,1.5,1.5,92,0.00,,,0.00,VWS V14.01,2013-01-07 12:39:00,
2013-01-07 07:40:00,22.3,20.4,30.45,SE,144,1.5,1.5,92,0.00,,,0.00,VWS V14.01,2013-01-07 12:40:00,
2013-01-07 07:41:00,22.2,20.3,30.45,SE,144,1.5,1.5,92,0.00,,,0.00,VWS V14.01,2013-01-07 12:41:00,
2013-01-07 07:42:00,22.2,20.3,30.45,SE,144,1.5,1.5,92,0.00,,,0.00,VWS V14.01,2013-01-07 12:42:00,
2013-01-07 07:43:00,22.2,20.3,30.45,SE,144,1.5,1.5,92,0.00,,,0.00,VWS V14.01,2013-01-07 12:43:00,
2013-01-07 07:44:00,22.2,20.3,30.45,SE,145,1.5,1.5,92,0.00,,,0.00,VWS V14.01,2013-01-07 12:44:00,
2013-01-07 07:45:00,22.1,20.2,30.45,SE,144,1.5,1.5,92,0.00,,,0.00,VWS V14.01,2013-01-07 12:45:00,
2013-01-07 07:46:00,22.0,19.9,30.45,SE,144,1.5,1.5,91,0.00,,,0.00,VWS V14.01,2013-01-07 12:46:00,
2013-01-07 07:47:00,22.0,19.9,30.45,SE,144,1.5,1.5,91,0.00,,,0.00,VWS V14.01,2013-01-07 12:47:00,
2013-01-07 07:48:00,21.9,19.8,30.45,SE,144,1.5,1.5,91,0.00,,,0.00,VWS V14.01,2013-01-07 12:48:00,
2013-01-07 07:49:00,21.9,19.8,30.45,SE,144,1.5,1.5,91,0.00,,,0.00,VWS V14.01,2013-01-07 12:49:00,
2013-01-07 07:50:00,21.9,20.0,30.45,SE,144,1.5,1.5,92,0.00,,,0.00,VWS V14.01,2013-01-07 12:50:00,
2013-01-07 07:51:00,21.9,20.0,30.45,SE,144,1.5,1.5,92,0.00,,,0.00,VWS V14.01,2013-01-07 12:51:00,
2013-01-07 07:52:00,21.9,20.0,30.45,SE,144,1.5,1.5,92,0.00,,,0.00,VWS V14.01,2013-01-07 12:52:00,
2013-01-07 07:53:00,21.8,19.9,30.45,SE,144,1.5,1.5,92,0.00,,,0.00,VWS V14.01,2013-01-07 12:53:00,
2013-01-07 07:54:00,21.8,19.9,30.45,SE,144,1.5,1.5,92,0.00,,,0.00,VWS V14.01,2013-01-07 12:54:00,
2013-01-07 07:55:00,21.8,19.9,30.45,SE,144,1.5,1.5,92,0.00,,,0.00,VWS V14.01,2013-01-07 12:55:00,
2013-01-07 07:56:00,21.8,19.9,30.45,SE,144,1.5,1.5,92,0.00,,,0.00,VWS V14.01,2013-01-07 12:56:00,
2013-01-07 07:57:00,21.8,19.9,30.46,SE,144,1.5,1.5,92,0.00,,,0.00,VWS V14.01,2013-01-07 12:57:00,
2013-01-07 07:58:00,21.8,19.9,30.45,SE,144,1.5,1.5,92,0.00,,,0.00,VWS V14.01,2013-01-07 12:58:00,
2013-01-07 07:59:00,21.8,19.9,30.45,SE,144,1.5,1.5,92,0.00,,,0.00,VWS V14.01,2013-01-07 12:59:00,
2013-01-07 08:00:00,21.8,19.9,30.45,SE,144,1.5,1.5,92,0.00,,,0.00,VWS V14.01,2013-01-07 13:00:00,
2013-01-07 08:01:00,21.8,19.9,30.45,SE,144,1.5,1.5,92,0.00,,,0.00,VWS V14.01,2013-01-07 13:01:00,
2013-01-07 08:02:00,21.7,19.8,30.45,SE,144,1.5,1.5,92,0.00,,,0.00,VWS V14.01,2013-01-07 13:02:00,
2013-01-07 08:03:00,21.7,19.8,30.46,SE,144,1.5,1.5,92,0.00,,,0.00,VWS V14.01,2013-01-07 13:03:00,
2013-01-07 08:04:00,21.6,19.7,30.45,SE,144,1.5,1.5,92,0.00,,,0.00,VWS V14.01,2013-01-07 13:04:00,
2013-01-07 08:05:00,21.6,19.7,30.46,SE,144,1.5,1.5,92,0.00,,,0.00,VWS V14.01,2013-01-07 13:05:00,
2013-01-07 08:06:00,21.6,19.7,30.46,SE,144,1.5,1.5,92,0.00,,,0.00,VWS V14.01,2013-01-07 13:06:00,
2013-01-07 08:07:00,21.6,19.7,30.46,SE,144,1.5,1.5,92,0.00,,,0.00,VWS V14.01,2013-01-07 13:07:00,
2013-01-07 08:08:00,21.5,19.6,30.46,SE,144,1.5,1.5,92,0.00,,,0.00,VWS V14.01,2013-01-07 13:08:00,
2013-01-07 08:09:00,21.4,19.5,30.46,SE,144,1.5,1.5,92,0.00,,,0.00,VWS V14.01,2013-01-07 13:09:00,
2013-01-07 08:10:00,21.4,19.5,30.46,SE,144,1.5,1.5,92,0.00,,,0.00,VWS V14.01,2013-01-07 13:10:00,
2013-01-07 08:11:00,21.3,19.4,30.46,SE,144,1.5,1.5,92,0.00,,,0.00,VWS V14.01,2013-01-07 13:11:00,
2013-01-07 08:12:00,21.2,19.3,30.46,SE,144,1.5,1.5,92,0.00,,,0.00,VWS V14.01,2013-01-07 13:12:00,
2013-01-07 08:13:00,21.1,19.2,30.46,SE,144,1.5,1.5,92,0.00,,,0.00,VWS V14.01,2013-01-07 13:13:00,
2013-01-07 08:14:00,21.0,19.1,30.46,SE,145,1.5,1.5,92,0.00,,,0.00,VWS V14.01,2013-01-07 13:14:00,
2013-01-07 08:15:00,21.0,19.1,30.46,SE,144,1.5,1.5,92,0.00,,,0.00,VWS V14.01,2013-01-07 13:15:00,
2013-01-07 08:16:00,21.0,19.1,30.46,SE,144,1.5,1.5,92,0.00,,,0.00,VWS V14.01,2013-01-07 13:16:00,
2013-01-07 08:17:00,21.1,19.2,30.46,SE,144,1.5,1.5,92,0.00,,,0.00,VWS V14.01,2013-01-07 13:17:00,
2013-01-07 08:18:00,21.2,19.3,30.46,SE,144,1.5,1.5,92,0.00,,,0.00,VWS V14.01,2013-01-07 13:18:00,
2013-01-07 08:19:00,21.2,19.3,30.46,SE,144,1.5,1.5,92,0.00,,,0.00,VWS V14.01,2013-01-07 13:19:00,
2013-01-07 08:20:00,21.3,19.4,30.46,SE,144,1.5,1.5,92,0.00,,,0.00,VWS V14.01,2013-01-07 13:20:00,
2013-01-07 08:21:00,21.4,19.8,30.46,SE,144,1.5,1.5,93,0.00,,,0.00,VWS V14.01,2013-01-07 13:21:00,
2013-01-07 08:22:00,21.5,19.9,30.46,SE,144,1.5,1.5,93,0.00,,,0.00,VWS V14.01,2013-01-07 13:22:00,
2013-01-07 08:23:00,21.6,20.0,30.46,SE,144,1.5,1.5,93,0.00,,,0.00,VWS V14.01,2013-01-07 13:23:00,
2013-01-07 08:24:00,21.7,20.1,30.46,SE,144,1.5,1.5,93,0.00,,,0.00,VWS V14.01,2013-01-07 13:24:00,
2013-01-07 08:25:00,21.8,20.2,30.45,SE,144,1.5,1.5,93,0.00,,,0.00,VWS V14.01,2013-01-07 13:25:00,
2013-01-07 08:26:00,21.9,20.3,30.45,SE,144,1.5,1.5,93,0.00,,,0.00,VWS V14.01,2013-01-07 13:26:00,
2013-01-07 08:27:00,22.0,20.4,30.45,SE,144,1.5,1.5,93,0.00,,,0.00,VWS V14.01,2013-01-07 13:27:00,
2013-01-07 08:28:00,22.1,20.5,30.45,SE,144,3.0,3.0,93,0.00,,,0.00,VWS V14.01,2013-01-07 13:28:00,
2013-01-07 08:29:00,22.1,20.5,30.45,ESE,123,1.5,3.0,93,0.00,,,0.00,VWS V14.01,2013-01-07 13:29:00,
2013-01-07 08:30:00,22.2,20.6,30.45,ESE,123,1.5,1.5,93,0.00,,,0.00,VWS V14.01,2013-01-07 13:30:00,
2013-01-07 08:31:00,22.2,20.6,30.45,ESE,123,1.5,1.5,93,0.00,,,0.00,VWS V14.01,2013-01-07 13:31:00,
2013-01-07 08:32:00,22.3,20.7,30.45,ESE,123,1.5,1.5,93,0.00,,,0.00,VWS V14.01,2013-01-07 13:32:00,
2013-01-07 08:33:00,22.4,20.8,30.45,ESE,123,1.5,1.5,93,0.00,,,0.00,VWS V14.01,2013-01-07 13:33:00,
2013-01-07 08:34:00,22.4,20.8,30.45,ESE,123,1.5,1.5,93,0.00,,,0.00,VWS V14.01,2013-01-07 13:34:00,
2013-01-07 08:35:00,22.4,20.8,30.45,ESE,123,1.5,1.5,93,0.00,,,0.00,VWS V14.01,2013-01-07 13:35:00,
2013-01-07 08:36:00,22.4,20.8,30.45,ESE,123,1.5,1.5,93,0.00,,,0.00,VWS V14.01,2013-01-07 13:36:00,
2013-01-07 08:37:00,22.5,20.9,30.45,ESE,123,1.5,1.5,93,0.00,,,0.00,VWS V14.01,2013-01-07 13:37:00,
2013-01-07 08:38:00,22.5,20.9,30.45,SE,124,1.5,1.5,93,0.00,,,0.00,VWS V14.01,2013-01-07 13:38:00,
2013-01-07 08:39:00,22.5,20.9,30.45,SE,124,1.5,1.5,93,0.00,,,0.00,VWS V14.01,2013-01-07 13:39:00,
2013-01-07 08:40:00,22.5,20.9,30.45,ESE,123,1.5,1.5,93,0.00,,,0.00,VWS V14.01,2013-01-07 13:40:00,
2013-01-07 08:41:00,22.5,20.9,30.45,ESE,123,1.5,1.5,93,0.00,,,0.00,VWS V14.01,2013-01-07 13:41:00,
2013-01-07 08:42:00,22.5,20.9,30.45,ESE,123,1.5,1.5,93,0.00,,,0.00,VWS V14.01,2013-01-07 13:42:00,
2013-01-07 08:43:00,22.6,21.0,30.45,ESE,123,1.5,1.5,93,0.00,,,0.00,VWS V14.01,2013-01-07 13:43:00,
2013-01-07 08:44:00,22.6,21.0,30.45,ESE,123,1.5,1.5,93,0.00,,,0.00,VWS V14.01,2013-01-07 13:44:00,
2013-01-07 08:45:00,22.6,21.0,30.45,ESE,123,1.5,1.5,93,0.00,,,0.00,VWS V14.01,2013-01-07 13:45:00,
2013-01-07 08:46:00,22.7,21.1,30.45,SE,124,1.5,1.5,93,0.00,,,0.00,VWS V14.01,2013-01-07 13:46:00,
2013-01-07 08:47:00,22.8,21.2,30.45,SE,124,1.5,1.5,93,0.00,,,0.00,VWS V14.01,2013-01-07 13:47:00,
2013-01-07 08:48:00,22.9,21.3,30.45,SE,124,1.5,1.5,93,0.00,,,0.00,VWS V14.01,2013-01-07 13:48:00,
2013-01-07 08:49:00,23.0,21.4,30.45,ESE,123,1.5,1.5,93,0.00,,,0.00,VWS V14.01,2013-01-07 13:49:00,
2013-01-07 08:50:00,23.2,21.6,30.45,ESE,123,1.5,1.5,93,0.00,,,0.00,VWS V14.01,2013-01-07 13:50:00,
2013-01-07 08:51:00,23.3,21.7,30.45,ESE,123,1.5,1.5,93,0.00,,,0.00,VWS V14.01,2013-01-07 13:51:00,
2013-01-07 08:52:00,23.4,21.8,30.45,ESE,123,1.5,1.5,93,0.00,,,0.00,VWS V14.01,2013-01-07 13:52:00,
2013-01-07 08:53:00,23.5,21.9,30.45,ESE,123,1.5,1.5,93,0.00,,,0.00,VWS V14.01,2013-01-07 13:53:00,
2013-01-07 08:54:00,23.6,22.0,30.45,SE,124,1.5,1.5,93,0.00,,,0.00,VWS V14.01,2013-01-07 13:54:00,
2013-01-07 08:55:00,23.7,22.1,30.45,ESE,123,1.5,1.5,93,0.00,,,0.00,VWS V14.01,2013-01-07 13:55:00,
2013-01-07 08:56:00,23.8,22.2,30.45,ESE,123,1.5,1.5,93,0.00,,,0.00,VWS V14.01,2013-01-07 13:56:00,
2013-01-07 08:57:00,23.9,22.3,30.45,ESE,123,1.5,1.5,93,0.00,,,0.00,VWS V14.01,2013-01-07 13:57:00,
2013-01-07 08:58:00,24.0,22.4,30.45,ESE,123,1.5,1.5,93,0.00,,,0.00,VWS V14.01,2013-01-07 13:58:00,
2013-01-07 08:59:00,24.0,22.4,30.45,ESE,123,1.5,1.5,93,0.00,,,0.00,VWS V14.01,2013-01-07 13:59:00,
2013-01-07 09:00:00,24.1,22.5,30.45,ESE,123,1.5,1.5,93,0.00,,,0.00,VWS V14.01,2013-01-07 14:00:00,
2013-01-07 09:01:00,24.2,22.6,30.45,ESE,123,1.5,1.5,93,0.00,,,0.00,VWS V14.01,2013-01-07 14:01:00,
2013-01-07 09:02:00,24.3,22.7,30.45,ESE,123,1.5,1.5,93,0.00,,,0.00,VWS V14.01,2013-01-07 14:02:00,
2013-01-07 09:03:00,24.4,22.8,30.45,ESE,123,1.5,1.5,93,0.00,,,0.00,VWS V14.01,2013-01-07 14:03:00,
2013-01-07 09:04:00,24.5,22.9,30.45,ESE,123,1.5,1.5,93,0.00,,,0.00,VWS V14.01,2013-01-07 14:04:00,
2013-01-07 09:05:00,24.6,23.0,30.45,ESE,108,3.0,3.0,93,0.00,,,0.00,VWS V14.01,2013-01-07 14:05:00,
2013-01-07 09:06:00,24.7,23.1,30.45,ESE,105,1.5,3.0,93,0.00,,,0.00,VWS V14.01,2013-01-07 14:06:00,
2013-01-07 09:07:00,24.8,23.2,30.45,ESE,105,1.5,1.5,93,0.00,,,0.00,VWS V14.01,2013-01-07 14:07:00,
2013-01-07 09:08:00,24.9,23.3,30.45,ESE,105,1.5,1.5,93,0.00,,,0.00,VWS V14.01,2013-01-07 14:08:00,
2013-01-07 09:09:00,24.9,23.3,30.45,ESE,105,1.5,1.5,93,0.00,,,0.00,VWS V14.01,2013-01-07 14:09:00,
2013-01-07 09:10:00,25.0,23.1,30.45,ESE,105,1.5,1.5,92,0.00,,,0.00,VWS V14.01,2013-01-07 14:10:00,
2013-01-07 09:11:00,25.1,23.2,30.45,ESE,105,1.5,1.5,92,0.00,,,0.00,VWS V14.01,2013-01-07 14:11:00,
2013-01-07 09:12:00,25.2,23.3,30.45,ESE,105,1.5,1.5,92,0.00,,,0.00,VWS V14.01,2013-01-07 14:12:00,
2013-01-07 09:13:00,25.3,23.4,30.45,ESE,105,1.5,1.5,92,0.00,,,0.00,VWS V14.01,2013-01-07 14:13:00,
2013-01-07 09:14:00,25.4,23.5,30.45,ESE,105,1.5,1.5,92,0.00,,,0.00,VWS V14.01,2013-01-07 14:14:00,
2013-01-07 09:15:00,25.5,23.6,30.45,ESE,105,3.0,3.0,92,0.00,,,0.00,VWS V14.01,2013-01-07 14:15:00,
2013-01-07 09:16:00,25.5,23.6,30.45,ESE,105,1.5,3.0,92,0.00,,,0.00,VWS V14.01,2013-01-07 14:16:00,
2013-01-07 09:17:00,25.5,23.3,30.45,East,98,3.0,3.0,91,0.00,,,0.00,VWS V14.01,2013-01-07 14:17:00,
2013-01-07 09:18:00,25.5,23.3,30.45,East,98,1.5,3.0,91,0.00,,,0.00,VWS V14.01,2013-01-07 14:18:00,
2013-01-07 09:19:00,25.6,23.4,30.45,East,98,1.5,3.0,91,0.00,,,0.00,VWS V14.01,2013-01-07 14:19:00,
2013-01-07 09:20:00,25.6,23.4,30.45,East,85,3.0,3.0,91,0.00,,,0.00,VWS V14.01,2013-01-07 14:20:00,
2013-01-07 09:21:00,25.7,23.3,30.45,East,85,3.0,3.0,90,0.00,,,0.00,VWS V14.01,2013-01-07 14:21:00,
2013-01-07 09:22:00,25.7,23.3,30.45,East,85,1.5,3.0,90,0.00,,,0.00,VWS V14.01,2013-01-07 14:22:00,
2013-01-07 09:23:00,25.8,23.4,30.45,East,85,1.5,1.5,90,0.00,,,0.00,VWS V14.01,2013-01-07 14:23:00,
2013-01-07 09:24:00,25.8,23.4,30.45,East,85,1.5,1.5,90,0.00,,,0.00,VWS V14.01,2013-01-07 14:24:00,
2013-01-07 09:25:00,25.9,23.5,30.45,East,86,1.5,1.5,90,0.00,,,0.00,VWS V14.01,2013-01-07 14:25:00,
2013-01-07 09:26:00,25.9,23.5,30.45,East,94,1.5,4.5,90,0.00,,,0.00,VWS V14.01,2013-01-07 14:26:00,
2013-01-07 09:27:00,26.0,23.6,30.45,East,93,1.5,3.0,90,0.00,,,0.00,VWS V14.01,2013-01-07 14:27:00,
2013-01-07 09:28:00,26.1,23.6,30.45,East,93,1.5,1.5,90,0.00,,,0.00,VWS V14.01,2013-01-07 14:28:00,
2013-01-07 09:29:00,26.1,23.6,30.45,East,93,3.0,3.0,90,0.00,,,0.00,VWS V14.01,2013-01-07 14:29:00,
2013-01-07 09:30:00,26.2,23.8,30.45,East,93,3.0,3.0,90,0.00,,,0.00,VWS V14.01,2013-01-07 14:30:00,
2013-01-07 09:31:00,26.3,23.9,30.45,East,86,1.5,3.0,90,0.00,,,0.00,VWS V14.01,2013-01-07 14:31:00,
2013-01-07 09:33:00,26.4,23.7,30.45,East,87,1.5,1.5,89,0.00,,,0.00,VWS V14.01,2013-01-07 14:33:00,
2013-01-07 09:34:00,26.4,23.7,30.45,East,86,1.5,1.5,89,0.00,,,0.00,VWS V14.01,2013-01-07 14:34:00,
2013-01-07 09:35:00,26.5,23.8,30.45,East,86,1.5,1.5,89,0.00,,,0.00,VWS V14.01,2013-01-07 14:35:00,
2013-01-07 09:36:00,26.6,23.9,30.45,East,86,1.5,1.5,89,0.00,,,0.00,VWS V14.01,2013-01-07 14:36:00,
2013-01-07 09:37:00,26.7,24.0,30.45,East,86,1.5,1.5,89,0.00,,,0.00,VWS V14.01,2013-01-07 14:37:00,
2013-01-07 09:38:00,26.8,24.1,30.45,East,86,3.0,3.0,89,0.00,,,0.00,VWS V14.01,2013-01-07 14:38:00,
2013-01-07 09:39:00,26.9,24.2,30.45,East,86,1.5,3.0,89,0.00,,,0.00,VWS V14.01,2013-01-07 14:39:00,
2013-01-07 09:40:00,26.9,24.2,30.46,East,86,1.5,1.5,89,0.00,,,0.00,VWS V14.01,2013-01-07 14:40:00,
2013-01-07 09:41:00,27.0,24.3,30.45,East,85,3.0,3.0,89,0.00,,,0.00,VWS V14.01,2013-01-07 14:41:00,
2013-01-07 09:42:00,27.1,24.1,30.45,East,84,3.0,3.0,88,0.00,,,0.00,VWS V14.01,2013-01-07 14:42:00,
2013-01-07 09:43:00,27.1,24.1,30.45,East,81,1.5,3.0,88,0.00,,,0.00,VWS V14.01,2013-01-07 14:43:00,
2013-01-07 09:44:00,27.2,24.2,30.46,East,81,1.5,1.5,88,0.00,,,0.00,VWS V14.01,2013-01-07 14:44:00,
2013-01-07 09:45:00,27.3,24.3,30.45,East,81,1.5,1.5,88,0.00,,,0.00,VWS V14.01,2013-01-07 14:45:00,
2013-01-07 09:46:00,27.4,24.4,30.46,East,82,1.5,1.5,88,0.00,,,0.00,VWS V14.01,2013-01-07 14:46:00,
2013-01-07 09:47:00,27.5,24.5,30.45,East,82,1.5,1.5,88,0.00,,,0.00,VWS V14.01,2013-01-07 14:47:00,
2013-01-07 09:48:00,27.5,24.5,30.45,ENE,61,3.0,3.0,88,0.00,,,0.00,VWS V14.01,2013-01-07 14:48:00,
2013-01-07 09:49:00,27.6,24.3,30.46,ENE,72,3.0,3.0,87,0.00,,,0.00,VWS V14.01,2013-01-07 14:49:00,
2013-01-07 09:50:00,27.6,24.3,30.46,ENE,71,3.0,4.5,87,0.00,,,0.00,VWS V14.01,2013-01-07 14:50:00,
2013-01-07 09:51:00,27.7,24.4,30.46,ENE,71,1.5,1.5,87,0.00,,,0.00,VWS V14.01,2013-01-07 14:51:00,
2013-01-07 09:52:00,27.8,24.5,30.46,ENE,71,1.5,3.0,87,0.00,,,0.00,VWS V14.01,2013-01-07 14:52:00,
2013-01-07 09:53:00,27.8,24.5,30.46,NE,53,3.0,4.5,87,0.00,,,0.00,VWS V14.01,2013-01-07 14:53:00,
2013-01-07 09:54:00,27.9,24.6,30.46,NE,53,3.0,3.0,87,0.00,,,0.00,VWS V14.01,2013-01-07 14:54:00,
2013-01-07 09:55:00,28.0,24.7,30.46,ENE,70,4.5,4.5,87,0.00,,,0.00,VWS V14.01,2013-01-07 14:55:00,
2013-01-07 09:56:00,28.1,24.5,30.46,NE,35,3.0,3.0,86,0.00,,,0.00,VWS V14.01,2013-01-07 14:56:00,
2013-01-07 09:57:00,28.1,24.5,30.46,NNE,32,4.5,4.5,86,0.00,,,0.00,VWS V14.01,2013-01-07 14:57:00,
2013-01-07 09:58:00,28.2,24.6,30.46,ENE,59,3.0,4.5,86,0.00,,,0.00,VWS V14.01,2013-01-07 14:58:00,
2013-01-07 09:59:00,28.3,24.7,30.46,ENE,58,1.5,3.0,86,0.00,,,0.00,VWS V14.01,2013-01-07 14:59:00,
2013-01-07 10:00:00,28.4,24.8,30.46,ENE,76,3.0,3.0,86,0.00,,,0.00,VWS V14.01,2013-01-07 15:00:00,
2013-01-07 10:01:00,28.5,24.9,30.46,ENE,70,3.0,3.0,86,0.00,,,0.00,VWS V14.01,2013-01-07 15:01:00,
2013-01-07 10:02:00,28.6,25.0,30.46,East,79,1.5,3.0,86,0.00,,,0.00,VWS V14.01,2013-01-07 15:02:00,
2013-01-07 10:03:00,28.7,25.1,30.46,NE,46,3.0,4.5,86,0.00,,,0.00,VWS V14.01,2013-01-07 15:03:00,
2013-01-07 10:04:00,28.8,24.9,30.46,ENE,70,3.0,3.0,85,0.00,,,0.00,VWS V14.01,2013-01-07 15:04:00,
2013-01-07 10:05:00,28.9,25.0,30.46,East,86,3.0,3.0,85,0.00,,,0.00,VWS V14.01,2013-01-07 15:05:00,
2013-01-07 10:06:00,29.0,25.1,30.46,ENE,70,3.0,4.5,85,0.00,,,0.00,VWS V14.01,2013-01-07 15:06:00,
2013-01-07 10:07:00,29.0,25.1,30.46,ENE,70,1.5,3.0,85,0.00,,,0.00,VWS V14.01,2013-01-07 15:07:00,
2013-01-07 10:08:00,29.1,25.2,30.46,ESE,108,3.0,3.0,85,0.00,,,0.00,VWS V14.01,2013-01-07 15:08:00,
2013-01-07 10:09:00,29.2,25.3,30.46,ENE,61,6.0,6.0,85,0.00,,,0.00,VWS V14.01,2013-01-07 15:09:00,
2013-01-07 10:10:00,29.2,25.3,30.46,East,90,3.0,7.5,85,0.00,,,0.00,VWS V14.01,2013-01-07 15:10:00,
2013-01-07 10:11:00,29.3,25.1,30.46,ESE,105,6.0,6.0,84,0.00,,,0.00,VWS V14.01,2013-01-07 15:11:00,
2013-01-07 10:12:00,29.3,25.1,30.46,East,86,4.5,6.0,84,0.00,,,0.00,VWS V14.01,2013-01-07 15:12:00,
2013-01-07 10:13:00,29.3,25.1,30.45,East,86,4.5,4.5,84,0.00,,,0.00,VWS V14.01,2013-01-07 15:13:00,
2013-01-07 10:14:00,29.3,25.1,30.46,ENE,60,3.0,6.0,84,0.00,,,0.00,VWS V14.01,2013-01-07 15:14:00,
2013-01-07 10:15:00,29.4,25.2,30.46,East,88,3.0,4.5,84,0.00,,,0.00,VWS V14.01,2013-01-07 15:15:00,
2013-01-07 10:16:00,29.5,25.3,30.46,East,84,1.5,3.0,84,0.00,,,0.00,VWS V14.01,2013-01-07 15:16:00,
2013-01-07 10:17:00,29.6,25.4,30.46,East,89,4.5,4.5,84,0.00,,,0.00,VWS V14.01,2013-01-07 15:17:00,
2013-01-07 10:18:00,29.7,25.5,30.46,ESE,104,3.0,4.5,84,0.00,,,0.00,VWS V14.01,2013-01-07 15:18:00,
2013-01-07 10:19:00,29.8,25.3,30.46,East,93,4.5,4.5,83,0.00,,,0.00,VWS V14.01,2013-01-07 15:19:00,
2013-01-07 10:20:00,29.8,25.3,30.46,East,87,3.0,6.0,83,0.00,,,0.00,VWS V14.01,2013-01-07 15:20:00,
2013-01-07 10:21:00,30.0,25.5,30.46,East,101,1.5,4.5,83,0.00,,,0.00,VWS V14.01,2013-01-07 15:21:00,
2013-01-07 10:22:00,30.1,25.6,30.45,East,101,1.5,1.5,83,0.00,,,0.00,VWS V14.01,2013-01-07 15:22:00,
2013-01-07 10:23:00,30.3,26.1,30.45,ENE,77,3.0,3.0,84,0.00,,,0.00,VWS V14.01,2013-01-07 15:23:00,
2013-01-07 10:24:00,30.4,26.1,30.45,East,91,3.0,3.0,84,0.00,,,0.00,VWS V14.01,2013-01-07 15:24:00,
2013-01-07 10:25:00,30.5,26.0,30.45,ENE,77,6.0,7.5,83,0.00,,,0.00,VWS V14.01,2013-01-07 15:25:00,
2013-01-07 10:26:00,30.5,25.6,30.45,ENE,70,3.0,6.0,82,0.00,,,0.00,VWS V14.01,2013-01-07 15:26:00,
2013-01-07 10:27:00,30.6,25.7,30.45,NE,47,1.5,4.5,82,0.00,,,0.00,VWS V14.01,2013-01-07 15:27:00,
2013-01-07 10:28:00,30.7,25.8,30.45,ENE,70,4.5,4.5,82,0.00,,,0.00,VWS V14.01,2013-01-07 15:28:00,
2013-01-07 10:29:00,30.7,25.8,30.45,ESE,117,3.0,7.5,82,0.00,,,0.00,VWS V14.01,2013-01-07 15:29:00,
2013-01-07 10:30:00,30.8,25.9,30.45,East,99,4.5,7.5,82,0.00,,,0.00,VWS V14.01,2013-01-07 15:30:00,
2013-01-07 10:31:00,30.8,25.9,30.45,East,96,4.5,6.0,82,0.00,,,0.00,VWS V14.01,2013-01-07 15:31:00,
2013-01-07 10:32:00,30.8,25.6,30.45,East,79,6.0,10.5,81,0.00,,,0.00,VWS V14.01,2013-01-07 15:32:00,
2013-01-07 10:33:00,30.9,25.7,30.45,East,82,3.0,6.0,81,0.00,,,0.00,VWS V14.01,2013-01-07 15:33:00,
2013-01-07 10:34:00,30.9,25.7,30.45,SE,127,4.5,9.0,81,0.00,,,0.00,VWS V14.01,2013-01-07 15:34:00,
2013-01-07 10:35:00,31.0,25.8,30.45,East,101,4.5,9.0,81,0.00,,,0.00,VWS V14.01,2013-01-07 15:35:00,
2013-01-07 10:36:00,31.0,25.8,30.45,SE,138,1.5,4.5,81,0.00,,,0.00,VWS V14.01,2013-01-07 15:36:00,
2013-01-07 10:37:00,31.1,25.9,30.45,SE,138,1.5,1.5,81,0.00,,,0.00,VWS V14.01,2013-01-07 15:37:00,
2013-01-07 10:38:00,31.2,26.3,30.45,ESE,110,6.0,6.0,82,0.00,,,0.00,VWS V14.01,2013-01-07 15:38:00,
2013-01-07 10:39:00,31.4,26.2,30.45,East,98,3.0,4.5,81,0.00,,,0.00,VWS V14.01,2013-01-07 15:39:00,
2013-01-07 10:40:00,31.4,26.2,30.45,ENE,70,4.5,4.5,81,0.00,,,0.00,VWS V14.01,2013-01-07 15:40:00,
2013-01-07 10:41:00,31.4,26.2,30.45,ENE,63,6.0,6.0,81,0.00,,,0.00,VWS V14.01,2013-01-07 15:41:00,
2013-01-07 10:42:00,31.6,26.4,30.45,East,101,7.5,7.5,81,0.00,,,0.00,VWS V14.01,2013-01-07 15:42:00,
2013-01-07 10:43:00,31.6,26.1,30.45,East,86,4.5,7.5,80,0.00,,,0.00,VWS V14.01,2013-01-07 15:43:00,
2013-01-07 10:44:00,31.7,26.2,30.45,ESE,111,4.5,7.5,80,0.00,,,0.00,VWS V14.01,2013-01-07 15:44:00,
2013-01-07 10:45:00,31.7,26.2,30.45,SSE,147,6.0,7.5,80,0.00,,,0.00,VWS V14.01,2013-01-07 15:45:00,
2013-01-07 10:46:00,31.8,26.3,30.45,East,79,4.5,6.0,80,0.00,,,0.00,VWS V14.01,2013-01-07 15:46:00,
2013-01-07 10:47:00,31.9,26.4,30.45,East,87,4.5,6.0,80,0.00,,,0.00,VWS V14.01,2013-01-07 15:47:00,
2013-01-07 10:48:00,32.0,26.5,30.45,ENE,68,3.0,9.0,80,0.00,,,0.00,VWS V14.01,2013-01-07 15:48:00,
2013-01-07 10:49:00,32.2,26.7,30.45,East,101,6.0,13.5,80,0.00,,,0.00,VWS V14.01,2013-01-07 15:49:00,
2013-01-07 10:50:00,32.2,26.4,30.45,ESE,110,10.5,13.5,79,0.00,,,0.00,VWS V14.01,2013-01-07 15:50:00,
2013-01-07 10:51:00,32.3,26.5,30.45,NE,55,3.0,10.5,79,0.00,,,0.00,VWS V14.01,2013-01-07 15:51:00,
2013-01-07 10:52:00,32.3,26.5,30.45,East,84,4.5,7.5,79,0.00,,,0.00,VWS V14.01,2013-01-07 15:52:00,
2013-01-07 10:53:00,32.4,26.5,30.45,East,84,10.5,10.5,79,0.00,,,0.00,VWS V14.01,2013-01-07 15:53:00,
2013-01-07 10:54:00,32.5,26.3,30.45,East,89,6.0,10.5,78,0.00,,,0.00,VWS V14.01,2013-01-07 15:54:00,
2013-01-07 10:55:00,32.5,26.3,30.45,ENE,60,6.0,10.5,78,0.00,,,0.00,VWS V14.01,2013-01-07 15:55:00,
2013-01-07 10:56:00,32.5,26.3,30.45,East,93,6.0,10.5,78,0.00,,,0.00,VWS V14.01,2013-01-07 15:56:00,
2013-01-07 10:57:00,32.5,26.3,30.45,NE,53,7.5,9.0,78,0.00,,,0.00,VWS V14.01,2013-01-07 15:57:00,
2013-01-07 10:58:00,32.6,26.4,30.45,East,90,3.0,9.0,78,0.00,,,0.00,VWS V14.01,2013-01-07 15:58:00,
2013-01-07 10:59:00,32.8,26.9,30.45,ESE,117,4.5,7.5,79,0.00,,,0.00,VWS V14.01,2013-01-07 15:59:00,
2013-01-07 11:00:00,32.8,26.9,30.45,East,86,6.0,7.5,79,0.00,,,0.00,VWS V14.01,2013-01-07 16:00:00,
2013-01-07 11:01:00,32.9,26.7,30.45,SE,140,6.0,6.0,78,0.00,,,0.00,VWS V14.01,2013-01-07 16:01:00,
2013-01-07 11:02:00,33.0,26.8,30.45,East,81,1.5,6.0,78,0.00,,,0.00,VWS V14.01,2013-01-07 16:02:00,
2013-01-07 11:03:00,33.1,26.9,30.45,ENE,74,4.5,6.0,78,0.00,,,0.00,VWS V14.01,2013-01-07 16:03:00,
2013-01-07 11:04:00,33.2,26.7,30.45,East,96,9.0,10.5,77,0.00,,,0.00,VWS V14.01,2013-01-07 16:04:00,
2013-01-07 11:05:00,33.2,26.7,30.45,ENE,71,7.5,10.5,77,0.00,,,0.00,VWS V14.01,2013-01-07 16:05:00,
2013-01-07 11:06:00,33.2,26.7,30.45,East,82,6.0,10.5,77,0.00,,,0.00,VWS V14.01,2013-01-07 16:06:00,
2013-01-07 11:07:00,33.2,26.3,30.45,ESE,108,3.0,9.0,76,0.00,,,0.00,VWS V14.01,2013-01-07 16:07:00,
2013-01-07 11:08:00,33.2,26.7,30.44,ENE,72,3.0,7.5,77,0.00,,,0.00,VWS V14.01,2013-01-07 16:08:00,
2013-01-07 11:09:00,33.3,27.1,30.45,East,89,9.0,10.5,78,0.00,,,0.00,VWS V14.01,2013-01-07 16:09:00,
2013-01-07 11:10:00,33.3,27.1,30.45,East,92,9.0,10.5,78,0.00,,,0.00,VWS V14.01,2013-01-07 16:10:00,
2013-01-07 11:11:00,33.4,26.9,30.45,ESE,105,3.0,9.0,77,0.00,,,0.00,VWS V14.01,2013-01-07 16:11:00,
2013-01-07 11:12:00,33.4,26.9,30.44,East,87,6.0,7.5,77,0.00,,,0.00,VWS V14.01,2013-01-07 16:12:00,
2013-01-07 11:13:00,33.5,26.6,30.45,ENE,66,13.5,13.5,76,0.00,,,0.00,VWS V14.01,2013-01-07 16:13:00,
2013-01-07 11:14:00,33.6,26.7,30.44,ENE,63,9.0,10.5,76,0.00,,,0.00,VWS V14.01,2013-01-07 16:14:00,
2013-01-07 11:15:00,33.6,26.7,30.44,ENE,65,9.0,10.5,76,0.00,,,0.00,VWS V14.01,2013-01-07 16:15:00,
2013-01-07 11:16:00,33.6,26.7,30.44,East,91,10.5,10.5,76,0.00,,,0.00,VWS V14.01,2013-01-07 16:16:00,
2013-01-07 11:17:00,33.7,26.8,30.44,East,93,6.0,10.5,76,0.00,,,0.00,VWS V14.01,2013-01-07 16:17:00,
2013-01-07 11:18:00,33.7,26.8,30.44,ENE,78,4.5,9.0,76,0.00,,,0.00,VWS V14.01,2013-01-07 16:18:00,
2013-01-07 11:19:00,33.9,27.0,30.44,ESE,119,3.0,7.5,76,0.00,,,0.00,VWS V14.01,2013-01-07 16:19:00,
2013-01-07 11:20:00,33.9,26.7,30.44,East,84,6.0,7.5,75,0.00,,,0.00,VWS V14.01,2013-01-07 16:20:00,
2013-01-07 11:21:00,34.0,26.8,30.44,ESE,117,3.0,10.5,75,0.00,,,0.00,VWS V14.01,2013-01-07 16:21:00,
2013-01-07 11:22:00,34.1,27.2,30.44,ENE,68,9.0,9.0,76,0.00,,,0.00,VWS V14.01,2013-01-07 16:22:00,
2013-01-07 11:23:00,34.1,27.2,30.44,ESE,108,4.5,9.0,76,0.00,,,0.00,VWS V14.01,2013-01-07 16:23:00,
2013-01-07 11:24:00,34.3,27.4,30.44,ENE,63,4.5,6.0,76,0.00,,,0.00,VWS V14.01,2013-01-07 16:24:00,
2013-01-07 11:25:00,34.4,27.5,30.44,ENE,68,3.0,6.0,76,0.00,,,0.00,VWS V14.01,2013-01-07 16:25:00,
2013-01-07 11:26:00,34.5,27.3,30.44,SSE,154,3.0,4.5,75,0.00,,,0.00,VWS V14.01,2013-01-07 16:26:00,
2013-01-07 11:27:00,34.6,27.4,30.44,East,98,6.0,10.5,75,0.00,,,0.00,VWS V14.01,2013-01-07 16:27:00,
2013-01-07 11:28:00,34.7,27.1,30.44,East,99,3.0,6.0,74,0.00,,,0.00,VWS V14.01,2013-01-07 16:28:00,
2013-01-07 11:29:00,34.8,27.5,30.43,ENE,72,9.0,12.0,75,0.00,,,0.00,VWS V14.01,2013-01-07 16:29:00,
2013-01-07 11:30:00,34.8,27.5,30.43,East,93,9.0,12.0,75,0.00,,,0.00,VWS V14.01,2013-01-07 16:30:00,
2013-01-07 11:31:00,34.8,27.2,30.43,ESE,105,6.0,9.0,74,0.00,,,0.00,VWS V14.01,2013-01-07 16:31:00,
2013-01-07 11:32:00,34.9,27.3,30.43,SE,127,7.5,7.5,74,0.00,,,0.00,VWS V14.01,2013-01-07 16:32:00,
2013-01-07 11:33:00,34.9,27.3,30.43,ENE,74,4.5,9.0,74,0.00,,,0.00,VWS V14.01,2013-01-07 16:33:00,
2013-01-07 11:34:00,35.0,27.4,30.43,East,82,3.0,6.0,74,0.00,,,0.00,VWS V14.01,2013-01-07 16:34:00,
2013-01-07 11:35:00,35.1,27.5,30.43,East,79,1.5,6.0,74,0.00,,,0.00,VWS V14.01,2013-01-07 16:35:00,
2013-01-07 11:36:00,35.2,27.9,30.43,ESE,106,1.5,4.5,75,0.00,,,0.00,VWS V14.01,2013-01-07 16:36:00,
2013-01-07 11:37:00,35.4,28.1,30.43,SE,127,1.5,3.0,75,0.00,,,0.00,VWS V14.01,2013-01-07 16:37:00,
2013-01-07 11:38:00,35.6,28.0,30.43,SE,131,7.5,9.0,74,0.00,,,0.00,VWS V14.01,2013-01-07 16:38:00,
2013-01-07 11:39:00,35.8,27.8,30.43,East,93,3.0,6.0,72,0.00,,,0.00,VWS V14.01,2013-01-07 16:39:00,
2013-01-07 11:40:00,35.8,27.8,30.43,East,93,1.5,6.0,72,0.00,,,0.00,VWS V14.01,2013-01-07 16:40:00,
2013-01-07 11:41:00,36.0,28.0,30.43,South,179,3.0,3.0,72,0.00,,,0.00,VWS V14.01,2013-01-07 16:41:00,
2013-01-07 11:42:00,36.1,28.1,30.43,East,86,6.0,6.0,72,0.00,,,0.00,VWS V14.01,2013-01-07 16:42:00,
2013-01-07 11:43:00,36.2,27.9,30.43,ENE,67,4.5,6.0,71,0.00,,,0.00,VWS V14.01,2013-01-07 16:43:00,
2013-01-07 11:44:00,36.3,28.0,30.43,East,98,1.5,6.0,71,0.00,,,0.00,VWS V14.01,2013-01-07 16:44:00,
2013-01-07 11:45:00,36.3,28.0,30.43,ENE,67,6.0,6.0,71,0.00,,,0.00,VWS V14.01,2013-01-07 16:45:00,
2013-01-07 11:46:00,36.3,27.6,30.42,East,96,7.5,7.5,70,0.00,,,0.00,VWS V14.01,2013-01-07 16:46:00,
2013-01-07 11:47:00,36.3,27.6,30.42,SE,136,7.5,7.5,70,0.00,,,0.00,VWS V14.01,2013-01-07 16:47:00,
2013-01-07 11:48:00,36.2,27.5,30.42,NE,47,4.5,7.5,70,0.00,,,0.00,VWS V14.01,2013-01-07 16:48:00,
2013-01-07 11:49:00,36.2,28.2,30.42,ENE,68,1.5,3.0,72,0.00,,,0.00,VWS V14.01,2013-01-07 16:49:00,
2013-01-07 11:50:00,36.3,28.3,30.42,South,178,1.5,4.5,72,0.00,,,0.00,VWS V14.01,2013-01-07 16:50:00,
2013-01-07 11:51:00,36.4,28.0,30.42,SSE,165,10.5,12.0,71,0.00,,,0.00,VWS V14.01,2013-01-07 16:51:00,
2013-01-07 11:52:00,36.4,27.7,30.42,SSE,151,6.0,15.0,70,0.00,,,0.00,VWS V14.01,2013-01-07 16:52:00,
2013-01-07 11:53:00,36.3,27.2,30.42,ESE,108,3.0,7.5,69,0.00,,,0.00,VWS V14.01,2013-01-07 16:53:00,
2013-01-07 11:54:00,36.3,27.2,30.42,South,169,6.0,7.5,69,0.00,,,0.00,VWS V14.01,2013-01-07 16:54:00,
2013-01-07 11:55:00,36.3,27.2,30.42,ESE,116,3.0,7.5,69,0.00,,,0.00,VWS V14.01,2013-01-07 16:55:00,
2013-01-07 11:56:00,36.3,27.2,30.42,SE,146,7.5,12.0,69,0.00,,,0.00,VWS V14.01,2013-01-07 16:56:00,
2013-01-07 11:57:00,36.3,27.6,30.42,South,178,7.5,9.0,70,0.00,,,0.00,VWS V14.01,2013-01-07 16:57:00,
2013-01-07 11:58:00,36.3,27.2,30.42,SE,126,6.0,10.5,69,0.00,,,0.00,VWS V14.01,2013-01-07 16:58:00,
2013-01-07 11:59:00,36.3,27.2,30.41,ESE,113,7.5,7.5,69,0.00,,,0.00,VWS V14.01,2013-01-07 16:59:00,
2013-01-07 12:00:00,36.3,27.2,30.41,ESE,104,7.5,7.5,69,0.00,,,0.00,VWS V14.01,2013-01-07 17:00:00,
2013-01-07 12:01:00,36.3,27.6,30.41,SE,130,6.0,9.0,70,0.00,,,0.00,VWS V14.01,2013-01-07 17:01:00,
2013-01-07 12:02:00,36.3,27.6,30.41,SSE,158,9.0,13.5,70,0.00,,,0.00,VWS V14.01,2013-01-07 17:02:00,
2013-01-07 12:03:00,36.4,27.7,30.41,East,100,7.5,21.0,70,0.00,,,0.00,VWS V14.01,2013-01-07 17:03:00,
2013-01-07 12:04:00,36.4,27.3,30.41,ENE,77,9.0,12.0,69,0.00,,,0.00,VWS V14.01,2013-01-07 17:04:00,
2013-01-07 12:05:00,36.4,27.3,30.41,ENE,77,7.5,12.0,69,0.00,,,0.00,VWS V14.01,2013-01-07 17:05:00,
2013-01-07 12:06:00,36.3,27.2,30.41,ENE,60,10.5,10.5,69,0.00,,,0.00,VWS V14.01,2013-01-07 17:06:00,
2013-01-07 12:07:00,36.2,26.8,30.41,ESE,117,6.0,10.5,68,0.00,,,0.00,VWS V14.01,2013-01-07 17:07:00,
2013-01-07 12:08:00,36.1,27.0,30.41,ENE,74,6.0,10.5,69,0.00,,,0.00,VWS V14.01,2013-01-07 17:08:00,
2013-01-07 12:09:00,36.1,27.0,30.41,East,101,4.5,6.0,69,0.00,,,0.00,VWS V14.01,2013-01-07 17:09:00,
2013-01-07 12:10:00,36.1,27.0,30.41,SSE,168,4.5,6.0,69,0.00,,,0.00,VWS V14.01,2013-01-07 17:10:00,
2013-01-07 12:11:00,36.2,27.5,30.41,SSE,160,4.5,10.5,70,0.00,,,0.00,VWS V14.01,2013-01-07 17:11:00,
2013-01-07 12:12:00,36.3,27.2,30.41,SSE,151,4.5,7.5,69,0.00,,,0.00,VWS V14.01,2013-01-07 17:12:00,
2013-01-07 12:13:00,36.3,27.2,30.41,SSW,192,7.5,10.5,69,0.00,,,0.00,VWS V14.01,2013-01-07 17:13:00,
2013-01-07 12:14:00,36.4,27.3,30.41,ENE,75,4.5,4.5,69,0.00,,,0.00,VWS V14.01,2013-01-07 17:14:00,
2013-01-07 12:15:00,36.5,27.4,30.41,ESE,105,10.5,10.5,69,0.00,,,0.00,VWS V14.01,2013-01-07 17:15:00,
2013-01-07 12:16:00,36.5,27.4,30.40,SSE,154,4.5,10.5,69,0.00,,,0.00,VWS V14.01,2013-01-07 17:16:00,
2013-01-07 12:17:00,36.5,27.4,30.40,SW,223,1.5,4.5,69,0.00,,,0.00,VWS V14.01,2013-01-07 17:17:00,
2013-01-07 12:18:00,36.6,27.9,30.40,SE,131,6.0,7.5,70,0.00,,,0.00,VWS V14.01,2013-01-07 17:18:00,
2013-01-07 12:19:00,36.8,27.7,30.40,South,181,6.0,6.0,69,0.00,,,0.00,VWS V14.01,2013-01-07 17:19:00,
2013-01-07 12:20:00,36.9,27.4,30.41,SE,146,4.5,7.5,68,0.00,,,0.00,VWS V14.01,2013-01-07 17:20:00,
2013-01-07 12:21:00,37.0,27.5,30.41,ESE,106,3.0,6.0,68,0.00,,,0.00,VWS V14.01,2013-01-07 17:21:00,
2013-01-07 12:22:00,37.0,27.5,30.41,NNE,29,3.0,4.5,68,0.00,,,0.00,VWS V14.01,2013-01-07 17:22:00,
2013-01-07 12:23:00,37.1,28.0,30.40,South,181,4.5,4.5,69,0.00,,,0.00,VWS V14.01,2013-01-07 17:23:00,
2013-01-07 12:24:00,37.3,27.8,30.41,ENE,71,4.5,4.5,68,0.00,,,0.00,VWS V14.01,2013-01-07 17:24:00,
2013-01-07 12:25:00,37.3,27.8,30.41,SE,137,3.0,4.5,68,0.00,,,0.00,VWS V14.01,2013-01-07 17:25:00,
2013-01-07 12:26:00,37.4,27.9,30.40,ENE,75,4.5,4.5,68,0.00,,,0.00,VWS V14.01,2013-01-07 17:26:00,
2013-01-07 12:27:00,37.5,28.0,30.40,East,88,3.0,4.5,68,0.00,,,0.00,VWS V14.01,2013-01-07 17:27:00,
2013-01-07 12:28:00,37.6,28.1,30.40,ENE,77,3.0,3.0,68,0.00,,,0.00,VWS V14.01,2013-01-07 17:28:00,
2013-01-07 12:29:00,37.6,27.7,30.40,ESE,122,4.5,4.5,67,0.00,,,0.00,VWS V14.01,2013-01-07 17:29:00,
2013-01-07 12:30:00,37.6,27.7,30.40,ESE,122,3.0,6.0,67,0.00,,,0.00,VWS V14.01,2013-01-07 17:30:00,
2013-01-07 12:31:00,37.6,28.1,30.40,East,91,4.5,6.0,68,0.00,,,0.00,VWS V14.01,2013-01-07 17:31:00,
2013-01-07 12:32:00,37.7,28.2,30.40,East,93,4.5,7.5,68,0.00,,,0.00,VWS V14.01,2013-01-07 17:32:00,
2013-01-07 12:33:00,37.7,27.8,30.40,East,86,4.5,6.0,67,0.00,,,0.00,VWS V14.01,2013-01-07 17:33:00,
2013-01-07 12:34:00,37.5,27.6,30.40,East,86,4.5,4.5,67,0.00,,,0.00,VWS V14.01,2013-01-07 17:34:00,
2013-01-07 12:35:00,37.5,27.2,30.40,ENE,75,3.0,4.5,66,0.00,,,0.00,VWS V14.01,2013-01-07 17:35:00,
2013-01-07 12:36:00,37.4,27.5,30.40,East,87,1.5,4.5,67,0.00,,,0.00,VWS V14.01,2013-01-07 17:36:00,
2013-01-07 12:37:00,37.4,27.5,30.40,NE,44,1.5,4.5,67,0.00,,,0.00,VWS V14.01,2013-01-07 17:37:00,
2013-01-07 12:38:00,37.6,28.1,30.40,SSE,154,4.5,4.5,68,0.00,,,0.00,VWS V14.01,2013-01-07 17:38:00,
2013-01-07 12:39:00,37.7,27.8,30.40,SE,133,3.0,6.0,67,0.00,,,0.00,VWS V14.01,2013-01-07 17:39:00,
2013-01-07 12:40:00,37.8,27.9,30.40,ESE,105,6.0,6.0,67,0.00,,,0.00,VWS V14.01,2013-01-07 17:40:00,
2013-01-07 12:41:00,37.8,27.9,30.40,ENE,68,3.0,6.0,67,0.00,,,0.00,VWS V14.01,2013-01-07 17:41:00,
2013-01-07 12:42:00,37.8,27.9,30.40,ESE,108,4.5,4.5,67,0.00,,,0.00,VWS V14.01,2013-01-07 17:42:00,
2013-01-07 12:43:00,37.9,28.0,30.40,East,101,3.0,6.0,67,0.00,,,0.00,VWS V14.01,2013-01-07 17:43:00,
2013-01-07 12:44:00,37.9,28.0,30.40,ENE,74,1.5,1.5,67,0.00,,,0.00,VWS V14.01,2013-01-07 17:44:00,
2013-01-07 12:45:00,37.9,27.6,30.40,West,271,3.0,3.0,66,0.00,,,0.00,VWS V14.01,2013-01-07 17:45:00,
2013-01-07 12:46:00,38.0,27.7,30.40,WSW,243,9.0,9.0,66,0.00,,,0.00,VWS V14.01,2013-01-07 17:46:00,
2013-01-07 12:47:00,38.0,27.7,30.40,SW,227,6.0,9.0,66,0.00,,,0.00,VWS V14.01,2013-01-07 17:47:00,
2013-01-07 12:48:00,37.9,27.2,30.39,West,266,3.0,6.0,65,0.00,,,0.00,VWS V14.01,2013-01-07 17:48:00,
2013-01-07 12:49:00,37.8,27.5,30.39,WSW,257,1.5,1.5,66,0.00,,,0.00,VWS V14.01,2013-01-07 17:49:00,
2013-01-07 12:50:00,37.8,27.5,30.39,SSE,160,1.5,3.0,66,0.00,,,0.00,VWS V14.01,2013-01-07 17:50:00,
2013-01-07 12:51:00,37.8,27.5,30.39,SSE,161,1.5,1.5,66,0.00,,,0.00,VWS V14.01,2013-01-07 17:51:00,
2013-01-07 12:52:00,38.0,28.1,30.39,SE,130,3.0,3.0,67,0.00,,,0.00,VWS V14.01,2013-01-07 17:52:00,
2013-01-07 12:53:00,38.2,28.3,30.39,ESE,116,3.0,4.5,67,0.00,,,0.00,VWS V14.01,2013-01-07 17:53:00,
2013-01-07 12:54:00,38.4,28.5,30.39,SE,132,3.0,3.0,67,0.00,,,0.00,VWS V14.01,2013-01-07 17:54:00,
2013-01-07 12:55:00,38.6,28.3,30.39,East,98,6.0,6.0,66,0.00,,,0.00,VWS V14.01,2013-01-07 17:55:00,
2013-01-07 12:56:00,38.7,28.4,30.39,WSW,245,1.5,6.0,66,0.00,,,0.00,VWS V14.01,2013-01-07 17:56:00,
2013-01-07 12:57:00,38.8,28.1,30.39,SE,134,3.0,4.5,65,0.00,,,0.00,VWS V14.01,2013-01-07 17:57:00,
2013-01-07 12:58:00,38.9,28.2,30.39,South,176,3.0,4.5,65,0.00,,,0.00,VWS V14.01,2013-01-07 17:58:00,
2013-01-07 12:59:00,38.9,28.2,30.39,SW,233,1.5,3.0,65,0.00,,,0.00,VWS V14.01,2013-01-07 17:59:00,
2013-01-07 13:00:00,39.0,28.3,30.39,SSW,198,3.0,6.0,65,0.00,,,0.00,VWS V14.01,2013-01-07 18:00:00,
2013-01-07 13:01:00,39.0,28.3,30.39,SSW,192,6.0,6.0,65,0.00,,,0.00,VWS V14.01,2013-01-07 18:01:00,
2013-01-07 13:02:00,39.1,28.0,30.39,SE,127,3.0,7.5,64,0.00,,,0.00,VWS V14.01,2013-01-07 18:02:00,
2013-01-07 13:03:00,39.1,28.0,30.39,SE,124,1.5,4.5,64,0.00,,,0.00,VWS V14.01,2013-01-07 18:03:00,
2013-01-07 13:04:00,39.2,28.1,30.39,ESE,116,1.5,1.5,64,0.00,,,0.00,VWS V14.01,2013-01-07 18:04:00,
2013-01-07 13:05:00,39.3,28.2,30.39,SW,223,4.5,6.0,64,0.00,,,0.00,VWS V14.01,2013-01-07 18:05:00,
2013-01-07 13:06:00,39.4,28.7,30.39,South,183,3.0,4.5,65,0.00,,,0.00,VWS V14.01,2013-01-07 18:06:00,
2013-01-07 13:07:00,39.5,28.4,30.39,South,183,1.5,3.0,64,0.00,,,0.00,VWS V14.01,2013-01-07 18:07:00,
2013-01-07 13:08:00,39.6,28.1,30.38,WNW,288,4.5,4.5,63,0.00,,,0.00,VWS V14.01,2013-01-07 18:08:00,
2013-01-07 13:09:00,39.6,28.1,30.38,West,264,6.0,6.0,63,0.00,,,0.00,VWS V14.01,2013-01-07 18:09:00,
2013-01-07 13:10:00,39.6,28.1,30.38,WSW,257,7.5,7.5,63,0.00,,,0.00,VWS V14.01,2013-01-07 18:10:00,
2013-01-07 13:11:00,39.4,27.9,30.38,West,271,7.5,9.0,63,0.00,,,0.00,VWS V14.01,2013-01-07 18:11:00,
2013-01-07 13:12:00,39.2,27.3,30.38,WNW,283,6.0,7.5,62,0.00,,,0.00,VWS V14.01,2013-01-07 18:12:00,
2013-01-07 13:13:00,39.0,27.5,30.38,West,276,1.5,7.5,63,0.00,,,0.00,VWS V14.01,2013-01-07 18:13:00,
2013-01-07 13:14:00,38.8,27.3,30.38,WNW,291,4.5,6.0,63,0.00,,,0.00,VWS V14.01,2013-01-07 18:14:00,
2013-01-07 13:15:00,38.8,27.7,30.38,West,276,6.0,6.0,64,0.00,,,0.00,VWS V14.01,2013-01-07 18:15:00,
2013-01-07 13:16:00,38.8,27.7,30.38,SW,231,1.5,6.0,64,0.00,,,0.00,VWS V14.01,2013-01-07 18:16:00,
2013-01-07 13:17:00,38.8,28.1,30.38,SW,214,4.5,6.0,65,0.00,,,0.00,VWS V14.01,2013-01-07 18:17:00,
2013-01-07 13:18:00,38.9,28.2,30.38,ESE,120,6.0,6.0,65,0.00,,,0.00,VWS V14.01,2013-01-07 18:18:00,
2013-01-07 13:19:00,39.1,28.4,30.38,ESE,116,3.0,3.0,65,0.00,,,0.00,VWS V14.01,2013-01-07 18:19:00,
2013-01-07 13:20:00,39.2,28.5,30.38,SE,130,1.5,3.0,65,0.00,,,0.00,VWS V14.01,2013-01-07 18:20:00,
2013-01-07 13:21:00,39.4,28.3,30.38,SE,133,6.0,6.0,64,0.00,,,0.00,VWS V14.01,2013-01-07 18:21:00,
2013-01-07 13:22:00,39.5,28.0,30.38,East,84,6.0,6.0,63,0.00,,,0.00,VWS V14.01,2013-01-07 18:22:00,
2013-01-07 13:23:00,39.5,28.0,30.38,ENE,72,4.5,9.0,63,0.00,,,0.00,VWS V14.01,2013-01-07 18:23:00,
2013-01-07 13:24:00,39.5,28.0,30.38,East,79,7.5,7.5,63,0.00,,,0.00,VWS V14.01,2013-01-07 18:24:00,
2013-01-07 13:25:00,39.4,27.9,30.38,East,93,6.0,9.0,63,0.00,,,0.00,VWS V14.01,2013-01-07 18:25:00,
2013-01-07 13:26:00,39.3,27.8,30.38,East,80,6.0,6.0,63,0.00,,,0.00,VWS V14.01,2013-01-07 18:26:00,
2013-01-07 13:27:00,39.2,27.7,30.38,East,85,4.5,7.5,63,0.00,,,0.00,VWS V14.01,2013-01-07 18:27:00,
2013-01-07 13:28:00,39.1,27.6,30.38,ENE,75,4.5,4.5,63,0.00,,,0.00,VWS V14.01,2013-01-07 18:28:00,
2013-01-07 13:29:00,39.2,28.1,30.38,SE,133,3.0,4.5,64,0.00,,,0.00,VWS V14.01,2013-01-07 18:29:00,
2013-01-07 13:30:00,39.3,28.6,30.37,SE,124,4.5,4.5,65,0.00,,,0.00,VWS V14.01,2013-01-07 18:30:00,
2013-01-07 13:31:00,39.5,28.4,30.37,SSW,196,6.0,6.0,64,0.00,,,0.00,VWS V14.01,2013-01-07 18:31:00,
2013-01-07 13:32:00,39.6,28.1,30.37,WSW,245,3.0,6.0,63,0.00,,,0.00,VWS V14.01,2013-01-07 18:32:00,
2013-01-07 13:33:00,39.7,27.7,30.37,WSW,247,1.5,4.5,62,0.00,,,0.00,VWS V14.01,2013-01-07 18:33:00,
2013-01-07 13:34:00,39.7,28.1,30.37,SSW,206,3.0,3.0,63,0.00,,,0.00,VWS V14.01,2013-01-07 18:34:00,
2013-01-07 13:35:00,39.8,28.2,30.37,SSW,206,1.5,3.0,63,0.00,,,0.00,VWS V14.01,2013-01-07 18:35:00,
2013-01-07 13:36:00,39.9,28.3,30.37,WSW,257,3.0,3.0,63,0.00,,,0.00,VWS V14.01,2013-01-07 18:36:00,
2013-01-07 13:37:00,40.0,28.4,30.37,West,273,6.0,6.0,63,0.00,,,0.00,VWS V14.01,2013-01-07 18:37:00,
2013-01-07 13:38:00,40.1,28.1,30.37,West,264,6.0,6.0,62,0.00,,,0.00,VWS V14.01,2013-01-07 18:38:00,
2013-01-07 13:39:00,40.0,27.6,30.37,West,278,6.0,6.0,61,0.00,,,0.00,VWS V14.01,2013-01-07 18:39:00,
2013-01-07 13:40:00,39.8,27.8,30.37,West,278,1.5,6.0,62,0.00,,,0.00,VWS V14.01,2013-01-07 18:40:00,
2013-01-07 13:41:00,39.8,27.8,30.37,NW,310,4.5,4.5,62,0.00,,,0.00,VWS V14.01,2013-01-07 18:41:00,
2013-01-07 13:42:00,39.7,27.7,30.36,West,278,7.5,7.5,62,0.00,,,0.00,VWS V14.01,2013-01-07 18:42:00,
2013-01-07 13:43:00,39.6,27.6,30.37,WNW,295,4.5,7.5,62,0.00,,,0.00,VWS V14.01,2013-01-07 18:43:00,
2013-01-07 13:44:00,39.5,27.5,30.37,West,277,3.0,3.0,62,0.00,,,0.00,VWS V14.01,2013-01-07 18:44:00,
2013-01-07 13:45:00,39.5,28.0,30.37,NW,304,3.0,3.0,63,0.00,,,0.00,VWS V14.01,2013-01-07 18:45:00,
2013-01-07 13:46:00,39.6,28.1,30.36,West,261,1.5,3.0,63,0.00,,,0.00,VWS V14.01,2013-01-07 18:46:00,
2013-01-07 13:47:00,39.7,28.1,30.36,West,273,1.5,3.0,63,0.00,,,0.00,VWS V14.01,2013-01-07 18:47:00,
2013-01-07 13:48:00,39.8,27.8,30.36,West,275,1.5,1.5,62,0.00,,,0.00,VWS V14.01,2013-01-07 18:48:00,
2013-01-07 13:49:00,40.0,28.4,30.36,North,349,3.0,3.0,63,0.00,,,0.00,VWS V14.01,2013-01-07 18:49:00,
2013-01-07 13:50:00,40.1,28.5,30.36,NE,47,4.5,6.0,63,0.00,,,0.00,VWS V14.01,2013-01-07 18:50:00,
2013-01-07 13:51:00,40.2,28.6,30.36,NE,44,4.5,4.5,63,0.00,,,0.00,VWS V14.01,2013-01-07 18:51:00,
2013-01-07 13:52:00,40.3,28.3,30.36,NNE,18,4.5,4.5,62,0.00,,,0.00,VWS V14.01,2013-01-07 18:52:00,
2013-01-07 13:53:00,40.4,28.8,30.36,East,88,7.5,7.5,63,0.00,,,0.00,VWS V14.01,2013-01-07 18:53:00,
2013-01-07 13:54:00,40.5,28.5,30.36,East,101,6.0,6.0,62,0.00,,,0.00,VWS V14.01,2013-01-07 18:54:00,
2013-01-07 13:55:00,40.5,28.5,30.36,ENE,68,6.0,6.0,62,0.00,,,0.00,VWS V14.01,2013-01-07 18:55:00,
2013-01-07 13:56:00,40.5,28.1,30.36,East,79,4.5,9.0,61,0.00,,,0.00,VWS V14.01,2013-01-07 18:56:00,
2013-01-07 13:57:00,40.5,28.5,30.36,ENE,74,6.0,9.0,62,0.00,,,0.00,VWS V14.01,2013-01-07 18:57:00,
2013-01-07 13:58:00,40.5,28.1,30.36,East,91,3.0,6.0,61,0.00,,,0.00,VWS V14.01,2013-01-07 18:58:00,
2013-01-07 13:59:00,40.7,29.1,30.36,West,264,7.5,7.5,63,0.00,,,0.00,VWS V14.01,2013-01-07 18:59:00,
2013-01-07 14:00:00,40.7,28.3,30.36,South,169,6.0,7.5,61,0.00,,,0.00,VWS V14.01,2013-01-07 19:00:00,
2013-01-07 14:01:00,40.8,28.4,30.36,SSE,167,3.0,7.5,61,0.00,,,0.00,VWS V14.01,2013-01-07 19:01:00,
2013-01-07 14:02:00,41.0,28.6,30.36,NNE,28,1.5,6.0,61,0.00,,,0.00,VWS V14.01,2013-01-07 19:02:00,
2013-01-07 14:03:00,41.1,28.2,30.36,SSE,162,1.5,7.5,60,0.00,,,0.00,VWS V14.01,2013-01-07 19:03:00,
2013-01-07 14:04:00,41.3,28.8,30.36,SE,127,4.5,6.0,61,0.00,,,0.00,VWS V14.01,2013-01-07 19:04:00,
2013-01-07 14:05:00,41.4,28.5,30.36,SE,144,3.0,6.0,60,0.00,,,0.00,VWS V14.01,2013-01-07 19:05:00,
2013-01-07 14:06:00,41.4,28.5,30.36,South,179,3.0,7.5,60,0.00,,,0.00,VWS V14.01,2013-01-07 19:06:00,
2013-01-07 14:07:00,41.5,28.6,30.36,South,172,4.5,6.0,60,0.00,,,0.00,VWS V14.01,2013-01-07 19:07:00,
2013-01-07 14:08:00,41.6,28.7,30.36,East,82,4.5,6.0,60,0.00,,,0.00,VWS V14.01,2013-01-07 19:08:00,
2013-01-07 14:09:00,41.6,28.7,30.36,ESE,110,6.0,6.0,60,0.00,,,0.00,VWS V14.01,2013-01-07 19:09:00,
2013-01-07 14:10:00,41.6,28.7,30.36,East,93,3.0,6.0,60,0.00,,,0.00,VWS V14.01,2013-01-07 19:10:00,
2013-01-07 14:11:00,41.6,28.3,30.36,ESE,113,3.0,3.0,59,0.00,,,0.00,VWS V14.01,2013-01-07 19:11:00,
2013-01-07 14:12:00,41.6,28.7,30.36,NE,51,3.0,3.0,60,0.00,,,0.00,VWS V14.01,2013-01-07 19:12:00,
2013-01-07 14:13:00,41.7,28.4,30.36,NE,55,3.0,3.0,59,0.00,,,0.00,VWS V14.01,2013-01-07 19:13:00,
2013-01-07 14:14:00,41.7,28.4,30.36,NE,46,1.5,3.0,59,0.00,,,0.00,VWS V14.01,2013-01-07 19:14:00,
2013-01-07 14:15:00,41.7,28.4,30.36,NE,46,1.5,3.0,59,0.00,,,0.00,VWS V14.01,2013-01-07 19:15:00,
2013-01-07 14:16:00,41.8,28.5,30.35,NE,46,1.5,3.0,59,0.00,,,0.00,VWS V14.01,2013-01-07 19:16:00,
2013-01-07 14:17:00,41.8,28.5,30.35,ESE,119,3.0,3.0,59,0.00,,,0.00,VWS V14.01,2013-01-07 19:17:00,
2013-01-07 14:18:00,41.7,28.4,30.35,ENE,70,4.5,6.0,59,0.00,,,0.00,VWS V14.01,2013-01-07 19:18:00,
2013-01-07 14:19:00,41.7,27.9,30.35,East,82,7.5,9.0,58,0.00,,,0.00,VWS V14.01,2013-01-07 19:19:00,
2013-01-07 14:20:00,41.5,27.7,30.35,ENE,72,6.0,9.0,58,0.00,,,0.00,VWS V14.01,2013-01-07 19:20:00,
2013-01-07 14:21:00,41.3,28.0,30.35,ESE,108,1.5,6.0,59,0.00,,,0.00,VWS V14.01,2013-01-07 19:21:00,
2013-01-07 14:22:00,41.3,28.4,30.35,East,93,1.5,3.0,60,0.00,,,0.00,VWS V14.01,2013-01-07 19:22:00,
2013-01-07 14:23:00,41.3,28.4,30.35,SSW,192,6.0,6.0,60,0.00,,,0.00,VWS V14.01,2013-01-07 19:23:00,
2013-01-07 14:24:00,41.4,28.1,30.35,SSW,192,4.5,7.5,59,0.00,,,0.00,VWS V14.01,2013-01-07 19:24:00,
2013-01-07 14:25:00,41.6,28.7,30.35,South,189,4.5,7.5,60,0.00,,,0.00,VWS V14.01,2013-01-07 19:25:00,
2013-01-07 14:26:00,41.7,28.4,30.35,SW,228,3.0,7.5,59,0.00,,,0.00,VWS V14.01,2013-01-07 19:26:00,
2013-01-07 14:27:00,41.7,27.9,30.35,SW,228,1.5,3.0,58,0.00,,,0.00,VWS V14.01,2013-01-07 19:27:00,
2013-01-07 14:28:00,41.8,28.0,30.35,SW,228,1.5,1.5,58,0.00,,,0.00,VWS V14.01,2013-01-07 19:28:00,
2013-01-07 14:29:00,42.0,28.6,30.35,SW,228,1.5,1.5,59,0.00,,,0.00,VWS V14.01,2013-01-07 19:29:00,
2013-01-07 14:30:00,42.0,28.2,30.35,WSW,243,3.0,3.0,58,0.00,,,0.00,VWS V14.01,2013-01-07 19:30:00,
2013-01-07 14:31:00,42.1,28.3,30.35,SE,143,4.5,4.5,58,0.00,,,0.00,VWS V14.01,2013-01-07 19:31:00,
2013-01-07 14:32:00,42.2,28.4,30.35,SE,141,4.5,4.5,58,0.00,,,0.00,VWS V14.01,2013-01-07 19:32:00,
2013-01-07 14:33:00,42.3,28.5,30.35,SE,124,3.0,6.0,58,0.00,,,0.00,VWS V14.01,2013-01-07 19:33:00,
2013-01-07 14:34:00,42.3,28.5,30.35,NE,46,1.5,3.0,58,0.00,,,0.00,VWS V14.01,2013-01-07 19:34:00,
2013-01-07 14:35:00,42.3,28.5,30.35,SSW,210,9.0,9.0,58,0.00,,,0.00,VWS V14.01,2013-01-07 19:35:00,
2013-01-07 14:36:00,42.3,28.5,30.35,SSE,150,7.5,9.0,58,0.00,,,0.00,VWS V14.01,2013-01-07 19:36:00,
2013-01-07 14:37:00,42.2,28.4,30.35,SSW,206,1.5,7.5,58,0.00,,,0.00,VWS V14.01,2013-01-07 19:37:00,
2013-01-07 14:38:00,42.3,28.5,30.35,ENE,59,4.5,6.0,58,0.00,,,0.00,VWS V14.01,2013-01-07 19:38:00,
2013-01-07 14:39:00,42.4,29.0,30.35,South,188,3.0,3.0,59,0.00,,,0.00,VWS V14.01,2013-01-07 19:39:00,
2013-01-07 14:40:00,42.5,28.7,30.35,ENE,70,4.5,4.5,58,0.00,,,0.00,VWS V14.01,2013-01-07 19:40:00,
2013-01-07 14:41:00,42.6,28.8,30.35,ENE,65,4.5,6.0,58,0.00,,,0.00,VWS V14.01,2013-01-07 19:41:00,
2013-01-07 14:42:00,42.5,28.7,30.35,ENE,60,4.5,6.0,58,0.00,,,0.00,VWS V14.01,2013-01-07 19:42:00,
2013-01-07 14:43:00,42.4,28.6,30.35,East,101,4.5,7.5,58,0.00,,,0.00,VWS V14.01,2013-01-07 19:43:00,
2013-01-07 14:44:00,42.3,28.9,30.35,ESE,111,1.5,1.5,59,0.00,,,0.00,VWS V14.01,2013-01-07 19:44:00,
2013-01-07 14:45:00,42.3,28.9,30.35,ESE,110,1.5,1.5,59,0.00,,,0.00,VWS V14.01,2013-01-07 19:45:00,
2013-01-07 14:46:00,42.4,29.0,30.35,East,91,3.0,4.5,59,0.00,,,0.00,VWS V14.01,2013-01-07 19:46:00,
2013-01-07 14:47:00,42.5,28.7,30.35,NE,45,6.0,6.0,58,0.00,,,0.00,VWS V14.01,2013-01-07 19:47:00,
2013-01-07 14:48:00,42.4,28.6,30.35,NNE,21,4.5,6.0,58,0.00,,,0.00,VWS V14.01,2013-01-07 19:48:00,
2013-01-07 14:49:00,42.3,28.0,30.35,ENE,77,3.0,3.0,57,0.00,,,0.00,VWS V14.01,2013-01-07 19:49:00,
2013-01-07 14:50:00,42.2,28.4,30.35,SE,134,4.5,12.0,58,0.00,,,0.00,VWS V14.01,2013-01-07 19:50:00,
2013-01-07 14:51:00,42.1,28.3,30.35,ESE,119,7.5,7.5,58,0.00,,,0.00,VWS V14.01,2013-01-07 19:51:00,
2013-01-07 14:52:00,42.1,28.3,30.35,ESE,113,6.0,7.5,58,0.00,,,0.00,VWS V14.01,2013-01-07 19:52:00,
2013-01-07 14:53:00,42.1,28.3,30.35,SE,127,3.0,6.0,58,0.00,,,0.00,VWS V14.01,2013-01-07 19:53:00,
2013-01-07 14:54:00,42.1,28.3,30.35,ESE,119,6.0,6.0,58,0.00,,,0.00,VWS V14.01,2013-01-07 19:54:00,
2013-01-07 14:55:00,42.1,28.3,30.35,ESE,105,4.5,6.0,58,0.00,,,0.00,VWS V14.01,2013-01-07 19:55:00,
2013-01-07 14:56:00,42.0,27.8,30.35,East,80,4.5,6.0,57,0.00,,,0.00,VWS V14.01,2013-01-07 19:56:00,
2013-01-07 14:57:00,41.9,27.7,30.35,NNW,327,3.0,4.5,57,0.00,,,0.00,VWS V14.01,2013-01-07 19:57:00,
2013-01-07 14:58:00,41.9,28.1,30.34,NNE,15,1.5,3.0,58,0.00,,,0.00,VWS V14.01,2013-01-07 19:58:00,
2013-01-07 14:59:00,41.9,28.1,30.34,NNE,15,1.5,1.5,58,0.00,,,0.00,VWS V14.01,2013-01-07 19:59:00,
2013-01-07 15:00:00,42.0,28.2,30.34,SE,127,4.5,4.5,58,0.00,,,0.00,VWS V14.01,2013-01-07 20:00:00,
2013-01-07 15:01:00,42.1,28.3,30.34,ESE,113,4.5,6.0,58,0.00,,,0.00,VWS V14.01,2013-01-07 20:01:00,
2013-01-07 15:02:00,42.1,28.3,30.34,ESE,119,1.5,6.0,58,0.00,,,0.00,VWS V14.01,2013-01-07 20:02:00,
2013-01-07 15:03:00,42.2,28.4,30.34,ESE,105,1.5,3.0,58,0.00,,,0.00,VWS V14.01,2013-01-07 20:03:00,
2013-01-07 15:04:00,42.3,28.5,30.34,East,101,1.5,1.5,58,0.00,,,0.00,VWS V14.01,2013-01-07 20:04:00,
2013-01-07 15:05:00,42.3,28.0,30.34,ENE,72,3.0,4.5,57,0.00,,,0.00,VWS V14.01,2013-01-07 20:05:00,
2013-01-07 15:06:00,42.4,28.1,30.34,ENE,73,1.5,3.0,57,0.00,,,0.00,VWS V14.01,2013-01-07 20:06:00,
2013-01-07 15:07:00,42.4,28.1,30.34,ENE,73,1.5,3.0,57,0.00,,,0.00,VWS V14.01,2013-01-07 20:07:00,
2013-01-07 15:08:00,42.5,28.2,30.34,NE,38,1.5,1.5,57,0.00,,,0.00,VWS V14.01,2013-01-07 20:08:00,
2013-01-07 15:09:00,42.6,28.3,30.34,NE,41,1.5,1.5,57,0.00,,,0.00,VWS V14.01,2013-01-07 20:09:00,
2013-01-07 15:10:00,42.6,28.3,30.34,ENE,74,7.5,9.0,57,0.00,,,0.00,VWS V14.01,2013-01-07 20:10:00,
2013-01-07 15:11:00,42.6,28.3,30.34,ENE,77,3.0,7.5,57,0.00,,,0.00,VWS V14.01,2013-01-07 20:11:00,
2013-01-07 15:12:00,42.5,28.2,30.34,East,88,1.5,4.5,57,0.00,,,0.00,VWS V14.01,2013-01-07 20:12:00,
2013-01-07 15:13:00,42.4,28.1,30.34,ENE,73,4.5,7.5,57,0.00,,,0.00,VWS V14.01,2013-01-07 20:13:00,
2013-01-07 15:14:00,42.3,28.0,30.34,East,80,3.0,4.5,57,0.00,,,0.00,VWS V14.01,2013-01-07 20:14:00,
2013-01-07 15:15:00,42.3,28.5,30.34,ENE,74,1.5,3.0,58,0.00,,,0.00,VWS V14.01,2013-01-07 20:15:00,
2013-01-07 15:16:00,42.3,28.5,30.34,ENE,63,4.5,6.0,58,0.00,,,0.00,VWS V14.01,2013-01-07 20:16:00,
2013-01-07 15:17:00,42.4,28.6,30.34,East,85,3.0,4.5,58,0.00,,,0.00,VWS V14.01,2013-01-07 20:17:00,
2013-01-07 15:18:00,42.5,28.7,30.34,ESE,113,4.5,4.5,58,0.00,,,0.00,VWS V14.01,2013-01-07 20:18:00,
2013-01-07 15:19:00,42.5,28.7,30.34,East,81,4.5,7.5,58,0.00,,,0.00,VWS V14.01,2013-01-07 20:19:00,
2013-01-07 15:20:00,42.5,28.2,30.34,ENE,78,4.5,7.5,57,0.00,,,0.00,VWS V14.01,2013-01-07 20:20:00,
2013-01-07 15:21:00,42.4,28.1,30.34,ENE,67,3.0,6.0,57,0.00,,,0.00,VWS V14.01,2013-01-07 20:21:00,
2013-01-07 15:22:00,42.4,28.1,30.34,East,89,3.0,3.0,57,0.00,,,0.00,VWS V14.01,2013-01-07 20:22:00,
2013-01-07 15:23:00,42.5,28.7,30.34,ENE,72,3.0,4.5,58,0.00,,,0.00,VWS V14.01,2013-01-07 20:23:00,
2013-01-07 15:24:00,42.5,28.7,30.34,ESE,116,4.5,6.0,58,0.00,,,0.00,VWS V14.01,2013-01-07 20:24:00,
2013-01-07 15:25:00,42.6,28.3,30.34,SSE,158,3.0,4.5,57,0.00,,,0.00,VWS V14.01,2013-01-07 20:25:00,
2013-01-07 15:26:00,42.6,28.3,30.34,ENE,65,4.5,4.5,57,0.00,,,0.00,VWS V14.01,2013-01-07 20:26:00,
2013-01-07 15:27:00,42.6,28.3,30.34,NE,48,3.0,6.0,57,0.00,,,0.00,VWS V14.01,2013-01-07 20:27:00,
2013-01-07 15:28:00,42.7,28.4,30.34,NE,46,6.0,6.0,57,0.00,,,0.00,VWS V14.01,2013-01-07 20:28:00,
2013-01-07 15:29:00,42.6,28.3,30.34,ENE,70,4.5,7.5,57,0.00,,,0.00,VWS V14.01,2013-01-07 20:29:00,
2013-01-07 15:30:00,42.5,27.8,30.34,ENE,74,1.5,4.5,56,0.00,,,0.00,VWS V14.01,2013-01-07 20:30:00,
2013-01-07 15:31:00,42.5,28.2,30.34,NNE,29,4.5,4.5,57,0.00,,,0.00,VWS V14.01,2013-01-07 20:31:00,
2013-01-07 15:32:00,42.5,28.2,30.34,NE,44,4.5,4.5,57,0.00,,,0.00,VWS V14.01,2013-01-07 20:32:00,
2013-01-07 15:33:00,42.5,28.2,30.34,NE,35,4.5,4.5,57,0.00,,,0.00,VWS V14.01,2013-01-07 20:33:00,
2013-01-07 15:34:00,42.5,28.2,30.34,NE,38,1.5,4.5,57,0.00,,,0.00,VWS V14.01,2013-01-07 20:34:00,
2013-01-07 15:35:00,42.6,28.3,30.34,East,87,4.5,6.0,57,0.00,,,0.00,VWS V14.01,2013-01-07 20:35:00,
2013-01-07 15:36:00,42.6,28.3,30.34,East,84,6.0,9.0,57,0.00,,,0.00,VWS V14.01,2013-01-07 20:36:00,
2013-01-07 15:37:00,42.5,28.2,30.34,NE,55,3.0,7.5,57,0.00,,,0.00,VWS V14.01,2013-01-07 20:37:00,
2013-01-07 15:38:00,42.5,27.8,30.34,ENE,59,4.5,6.0,56,0.00,,,0.00,VWS V14.01,2013-01-07 20:38:00,
2013-01-07 15:39:00,42.5,27.8,30.34,East,89,6.0,6.0,56,0.00,,,0.00,VWS V14.01,2013-01-07 20:39:00,
2013-01-07 15:40:00,42.4,28.1,30.34,East,101,4.5,7.5,57,0.00,,,0.00,VWS V14.01,2013-01-07 20:40:00,
2013-01-07 15:41:00,42.4,28.1,30.34,ENE,67,4.5,6.0,57,0.00,,,0.00,VWS V14.01,2013-01-07 20:41:00,
2013-01-07 15:42:00,42.4,28.1,30.34,ENE,70,1.5,4.5,57,0.00,,,0.00,VWS V14.01,2013-01-07 20:42:00,
2013-01-07 15:43:00,42.5,28.7,30.34,ENE,74,7.5,7.5,58,0.00,,,0.00,VWS V14.01,2013-01-07 20:43:00,
2013-01-07 15:44:00,42.5,28.2,30.34,ESE,108,4.5,7.5,57,0.00,,,0.00,VWS V14.01,2013-01-07 20:44:00,
2013-01-07 15:45:00,42.4,28.1,30.34,East,101,4.5,7.5,57,0.00,,,0.00,VWS V14.01,2013-01-07 20:45:00,
2013-01-07 15:46:00,42.4,27.7,30.34,East,101,4.5,7.5,56,0.00,,,0.00,VWS V14.01,2013-01-07 20:46:00,
2013-01-07 15:47:00,42.3,28.0,30.34,ENE,67,4.5,4.5,57,0.00,,,0.00,VWS V14.01,2013-01-07 20:47:00,
2013-01-07 15:48:00,42.3,28.0,30.34,NE,53,3.0,6.0,57,0.00,,,0.00,VWS V14.01,2013-01-07 20:48:00,
2013-01-07 15:49:00,42.3,28.0,30.34,East,98,7.5,7.5,57,0.00,,,0.00,VWS V14.01,2013-01-07 20:49:00,
2013-01-07 15:50:00,42.3,28.5,30.34,SE,125,4.5,7.5,58,0.00,,,0.00,VWS V14.01,2013-01-07 20:50:00,
2013-01-07 15:51:00,42.3,28.0,30.34,East,89,6.0,6.0,57,0.00,,,0.00,VWS V14.01,2013-01-07 20:51:00,
2013-01-07 15:52:00,42.3,28.0,30.34,ESE,102,4.5,6.0,57,0.00,,,0.00,VWS V14.01,2013-01-07 20:52:00,
2013-01-07 15:53:00,42.3,28.0,30.34,ENE,73,6.0,6.0,57,0.00,,,0.00,VWS V14.01,2013-01-07 20:53:00,
2013-01-07 15:54:00,42.3,28.0,30.34,ENE,72,4.5,6.0,57,0.00,,,0.00,VWS V14.01,2013-01-07 20:54:00,
2013-01-07 15:55:00,42.2,28.0,30.34,ENE,70,4.5,4.5,57,0.00,,,0.00,VWS V14.01,2013-01-07 20:55:00,
2013-01-07 15:56:00,42.2,28.0,30.33,ENE,76,4.5,4.5,57,0.00,,,0.00,VWS V14.01,2013-01-07 20:56:00,
2013-01-07 15:57:00,42.1,27.9,30.33,ENE,75,1.5,4.5,57,0.00,,,0.00,VWS V14.01,2013-01-07 20:57:00,
2013-01-07 15:59:00,42.1,27.9,30.33,East,101,3.0,3.0,57,0.00,,,0.00,VWS V14.01,2013-01-07 20:59:00,
2013-01-07 16:07:00,42.3,28.0,30.33,ENE,78,4.5,6.0,57,0.00,,,0.00,VWS V14.01,2013-01-07 21:07:00,
2013-01-07 16:12:00,42.4,28.6,30.33,East,84,3.0,6.0,58,0.00,,,0.00,VWS V14.01,2013-01-07 21:12:00,
2013-01-07 16:17:00,42.6,28.3,30.33,SE,127,3.0,3.0,57,0.00,,,0.00,VWS V14.01,2013-01-07 21:17:00,
2013-01-07 16:22:00,43.1,28.3,30.34,ENE,75,3.0,6.0,56,0.00,,,0.00,VWS V14.01,2013-01-07 21:22:00,
2013-01-07 16:27:00,43.1,28.3,30.33,ENE,70,4.5,6.0,56,0.00,,,0.00,VWS V14.01,2013-01-07 21:27:00,
2013-01-07 16:32:00,42.6,28.3,30.33,East,89,4.5,4.5,57,0.00,,,0.00,VWS V14.01,2013-01-07 21:32:00,
2013-01-07 16:36:00,42.4,28.1,30.33,ESE,105,4.5,4.5,57,0.00,,,0.00,VWS V14.01,2013-01-07 21:36:00,
2013-01-07 16:41:00,42.2,28.0,30.33,ESE,102,3.0,4.5,57,0.00,,,0.00,VWS V14.01,2013-01-07 21:41:00,
2013-01-07 16:46:00,42.4,28.1,30.33,SE,124,1.5,4.5,57,0.00,,,0.00,VWS V14.01,2013-01-07 21:46:00,
2013-01-07 16:51:00,42.3,28.5,30.33,East,98,1.5,3.0,58,0.00,,,0.00,VWS V14.01,2013-01-07 21:51:00,
2013-01-07 16:56:00,42.3,28.5,30.33,SE,124,1.5,1.5,58,0.00,,,0.00,VWS V14.01,2013-01-07 21:56:00,
2013-01-07 17:01:00,42.8,28.5,30.33,SE,127,1.5,1.5,57,0.00,,,0.00,VWS V14.01,2013-01-07 22:01:00,
2013-01-07 17:06:00,42.8,28.0,30.32,ESE,108,1.5,1.5,56,0.00,,,0.00,VWS V14.01,2013-01-07 22:06:00,
2013-01-07 17:11:00,42.1,28.3,30.33,East,98,1.5,3.0,58,0.00,,,0.00,VWS V14.01,2013-01-07 22:11:00,
2013-01-07 17:16:00,41.4,28.1,30.33,East,93,1.5,3.0,59,0.00,,,0.00,VWS V14.01,2013-01-07 22:16:00,
2013-01-07 17:21:00,41.2,27.9,30.33,ESE,122,3.0,3.0,59,0.00,,,0.00,VWS V14.01,2013-01-07 22:21:00,
2013-01-07 17:26:00,40.8,27.9,30.32,ESE,122,1.5,1.5,60,0.00,,,0.00,VWS V14.01,2013-01-07 22:26:00,
2013-01-07 17:31:00,40.2,27.8,30.32,ESE,122,1.5,1.5,61,0.00,,,0.00,VWS V14.01,2013-01-07 22:31:00,
2013-01-07 17:36:00,39.4,27.5,30.32,ESE,122,1.5,1.5,62,0.00,,,0.00,VWS V14.01,2013-01-07 22:36:00,
2013-01-07 17:41:00,38.6,27.5,30.32,ESE,122,1.5,1.5,64,0.00,,,0.00,VWS V14.01,2013-01-07 22:41:00,
2013-01-07 17:46:00,38.1,27.4,30.32,ESE,122,1.5,1.5,65,0.00,,,0.00,VWS V14.01,2013-01-07 22:46:00,
2013-01-07 17:51:00,37.5,27.2,30.31,ESE,122,1.5,1.5,66,0.00,,,0.00,VWS V14.01,2013-01-07 22:51:00,
2013-01-07 17:56:00,36.9,27.0,30.31,ESE,122,1.5,1.5,67,0.00,,,0.00,VWS V14.01,2013-01-07 22:56:00,
2013-01-07 18:01:00,36.2,26.8,30.31,ESE,122,1.5,1.5,68,0.00,,,0.00,VWS V14.01,2013-01-07 23:01:00,
2013-01-07 18:06:00,35.4,26.7,30.31,ESE,122,1.5,1.5,70,0.00,,,0.00,VWS V14.01,2013-01-07 23:06:00,
2013-01-07 18:11:00,34.6,26.0,30.31,ESE,122,1.5,1.5,70,0.00,,,0.00,VWS V14.01,2013-01-07 23:11:00,
2013-01-07 18:16:00,34.1,26.2,30.31,ESE,122,1.5,1.5,72,0.00,,,0.00,VWS V14.01,2013-01-07 23:16:00,
2013-01-07 18:21:00,33.6,26.4,30.31,ESE,122,1.5,1.5,75,0.00,,,0.00,VWS V14.01,2013-01-07 23:21:00,
2013-01-07 18:26:00,33.3,26.4,30.31,ESE,122,1.5,1.5,76,0.00,,,0.00,VWS V14.01,2013-01-07 23:26:00,
2013-01-07 18:31:00,33.2,26.3,30.30,ESE,122,1.5,1.5,76,0.00,,,0.00,VWS V14.01,2013-01-07 23:31:00,
2013-01-07 18:36:00,33.4,26.5,30.30,ESE,120,1.5,1.5,76,0.00,,,0.00,VWS V14.01,2013-01-07 23:36:00,
2013-01-07 18:41:00,33.5,26.6,30.30,ESE,121,1.5,1.5,76,0.00,,,0.00,VWS V14.01,2013-01-07 23:41:00,
2013-01-07 18:46:00,33.8,26.6,30.30,SSE,160,1.5,1.5,75,0.00,,,0.00,VWS V14.01,2013-01-07 23:46:00,
2013-01-07 18:51:00,33.9,27.0,30.30,South,183,1.5,1.5,76,0.00,,,0.00,VWS V14.01,2013-01-07 23:51:00,
2013-01-07 18:56:00,33.8,26.6,30.29,South,183,1.5,1.5,75,0.00,,,0.00,VWS V14.01,2013-01-07 23:56:00,
2013-01-07 19:01:00,33.5,26.6,30.29,South,183,1.5,1.5,76,0.00,,,0.00,VWS V14.01,2013-01-08 00:01:00,
2013-01-07 19:06:00,33.6,26.7,30.29,South,184,1.5,1.5,76,0.00,,,0.00,VWS V14.01,2013-01-08 00:06:00,
2013-01-07 19:11:00,33.5,26.3,30.29,South,183,1.5,1.5,75,0.00,,,0.00,VWS V14.01,2013-01-08 00:11:00,
2013-01-07 19:16:00,33.3,26.4,30.29,South,183,1.5,1.5,76,0.00,,,0.00,VWS V14.01,2013-01-08 00:16:00,
2013-01-07 19:21:00,33.5,27.0,30.30,South,183,1.5,1.5,77,0.00,,,0.00,VWS V14.01,2013-01-08 00:21:00,
2013-01-07 19:26:00,33.3,26.4,30.30,South,183,1.5,1.5,76,0.00,,,0.00,VWS V14.01,2013-01-08 00:26:00,
2013-01-07 19:31:00,32.9,26.0,30.29,South,183,1.5,1.5,76,0.00,,,0.00,VWS V14.01,2013-01-08 00:31:00,
2013-01-07 19:36:00,32.5,26.3,30.29,SE,131,1.5,1.5,78,0.00,,,0.00,VWS V14.01,2013-01-08 00:36:00,
2013-01-07 19:41:00,32.6,26.4,30.29,SE,130,1.5,1.5,78,0.00,,,0.00,VWS V14.01,2013-01-08 00:41:00,
2013-01-07 19:46:00,32.7,26.5,30.29,SE,130,1.5,1.5,78,0.00,,,0.00,VWS V14.01,2013-01-08 00:46:00,
2013-01-07 19:51:00,32.6,26.4,30.29,SE,130,1.5,1.5,78,0.00,,,0.00,VWS V14.01,2013-01-08 00:51:00,
2013-01-07 19:56:00,32.4,26.2,30.29,SE,130,1.5,1.5,78,0.00,,,0.00,VWS V14.01,2013-01-08 00:56:00,
2013-01-07 20:01:00,31.9,25.7,30.29,SE,131,1.5,1.5,78,0.00,,,0.00,VWS V14.01,2013-01-08 01:01:00,
2013-01-07 20:06:00,31.7,26.2,30.28,SE,130,1.5,1.5,80,0.00,,,0.00,VWS V14.01,2013-01-08 01:06:00,
2013-01-07 20:11:00,31.5,26.0,30.28,SE,130,1.5,1.5,80,0.00,,,0.00,VWS V14.01,2013-01-08 01:11:00,
2013-01-07 20:16:00,31.1,25.6,30.28,SE,130,1.5,1.5,80,0.00,,,0.00,VWS V14.01,2013-01-08 01:16:00,
2013-01-07 20:21:00,30.8,25.6,30.28,SE,131,1.5,1.5,81,0.00,,,0.00,VWS V14.01,2013-01-08 01:21:00,
2013-01-07 20:26:00,30.9,26.0,30.28,SE,130,1.5,1.5,82,0.00,,,0.00,VWS V14.01,2013-01-08 01:26:00,
2013-01-07 20:31:00,30.9,26.0,30.28,SE,130,1.5,1.5,82,0.00,,,0.00,VWS V14.01,2013-01-08 01:31:00,
2013-01-07 20:36:00,30.6,25.7,30.28,SE,130,1.5,1.5,82,0.00,,,0.00,VWS V14.01,2013-01-08 01:36:00,
2013-01-07 20:41:00,30.3,25.8,30.27,SE,130,1.5,1.5,83,0.00,,,0.00,VWS V14.01,2013-01-08 01:41:00,
2013-01-07 20:46:00,30.5,26.0,30.27,SE,130,1.5,1.5,83,0.00,,,0.00,VWS V14.01,2013-01-08 01:46:00,
2013-01-07 20:51:00,30.6,26.0,30.28,SE,130,1.5,1.5,83,0.00,,,0.00,VWS V14.01,2013-01-08 01:51:00,
2013-01-07 20:56:00,30.3,25.8,30.28,SE,131,1.5,1.5,83,0.00,,,0.00,VWS V14.01,2013-01-08 01:56:00,
2013-01-07 21:01:00,30.1,25.9,30.28,SE,130,1.5,1.5,84,0.00,,,0.00,VWS V14.01,2013-01-08 02:01:00,
2013-01-07 21:06:00,30.1,25.6,30.27,SE,130,1.5,1.5,83,0.00,,,0.00,VWS V14.01,2013-01-08 02:06:00,
2013-01-07 21:11:00,29.8,25.6,30.27,SE,131,1.5,3.0,84,0.00,,,0.00,VWS V14.01,2013-01-08 02:11:00,
2013-01-07 21:16:00,29.5,25.3,30.27,SE,130,1.5,3.0,84,0.00,,,0.00,VWS V14.01,2013-01-08 02:16:00,
2013-01-07 21:21:00,29.3,25.4,30.27,SE,130,1.5,1.5,85,0.00,,,0.00,VWS V14.01,2013-01-08 02:21:00,
2013-01-07 21:26:00,28.9,24.7,30.27,SE,131,1.5,1.5,84,0.00,,,0.00,VWS V14.01,2013-01-08 02:26:00,
2013-01-07 21:31:00,28.4,24.2,30.26,SE,130,1.5,1.5,84,0.00,,,0.00,VWS V14.01,2013-01-08 02:31:00,
2013-01-07 21:36:00,27.9,24.0,30.26,SE,130,1.5,1.5,85,0.00,,,0.00,VWS V14.01,2013-01-08 02:36:00,
2013-01-07 21:41:00,27.9,24.6,30.25,SE,143,1.5,4.5,87,0.00,,,0.00,VWS V14.01,2013-01-08 02:41:00,
2013-01-07 21:46:00,28.1,24.8,30.25,ESE,117,3.0,3.0,87,0.00,,,0.00,VWS V14.01,2013-01-08 02:46:00,
2013-01-07 21:51:00,28.1,25.1,30.24,ESE,107,6.0,6.0,88,0.00,,,0.00,VWS V14.01,2013-01-08 02:51:00,
2013-01-07 21:56:00,28.1,25.1,30.24,ESE,119,3.0,4.5,88,0.00,,,0.00,VWS V14.01,2013-01-08 02:56:00,
2013-01-07 22:01:00,28.2,25.2,30.24,SE,126,1.5,3.0,88,0.00,,,0.00,VWS V14.01,2013-01-08 03:01:00,
2013-01-07 22:06:00,28.0,24.7,30.24,SE,126,1.5,1.5,87,0.00,,,0.00,VWS V14.01,2013-01-08 03:06:00,
2013-01-07 22:11:00,27.8,24.5,30.24,SE,127,1.5,1.5,87,0.00,,,0.00,VWS V14.01,2013-01-08 03:11:00,
2013-01-07 22:16:00,27.6,24.3,30.25,SE,126,1.5,1.5,87,0.00,,,0.00,VWS V14.01,2013-01-08 03:16:00,
2013-01-07 22:21:00,27.2,23.9,30.25,SSW,202,1.5,1.5,87,0.00,,,0.00,VWS V14.01,2013-01-08 03:21:00,
2013-01-07 22:26:00,27.1,23.8,30.25,SSW,211,1.5,1.5,87,0.00,,,0.00,VWS V14.01,2013-01-08 03:26:00,
2013-01-07 22:31:00,27.2,24.2,30.25,SSW,212,1.5,1.5,88,0.00,,,0.00,VWS V14.01,2013-01-08 03:31:00,
2013-01-07 22:36:00,27.2,23.9,30.25,SSW,212,1.5,1.5,87,0.00,,,0.00,VWS V14.01,2013-01-08 03:36:00,
2013-01-07 22:41:00,27.2,23.9,30.25,SSW,212,1.5,1.5,87,0.00,,,0.00,VWS V14.01,2013-01-08 03:41:00,
2013-01-07 22:46:00,27.1,24.1,30.25,SE,125,1.5,1.5,88,0.00,,,0.00,VWS V14.01,2013-01-08 03:46:00,
2013-01-07 22:51:00,27.7,24.7,30.25,SE,136,1.5,1.5,88,0.00,,,0.00,VWS V14.01,2013-01-08 03:51:00,
2013-01-07 22:56:00,27.9,24.6,30.25,SE,136,1.5,1.5,87,0.00,,,0.00,VWS V14.01,2013-01-08 03:56:00,
2013-01-07 23:01:00,27.2,23.6,30.25,SE,136,1.5,1.5,86,0.00,,,0.00,VWS V14.01,2013-01-08 04:01:00,
2013-01-07 23:06:00,26.8,23.8,30.25,SE,136,1.5,1.5,88,0.00,,,0.00,VWS V14.01,2013-01-08 04:06:00,
2013-01-07 23:11:00,26.8,24.1,30.25,SE,136,1.5,1.5,89,0.00,,,0.00,VWS V14.01,2013-01-08 04:11:00,
2013-01-07 23:16:00,27.0,24.3,30.25,SE,136,1.5,1.5,89,0.00,,,0.00,VWS V14.01,2013-01-08 04:16:00,
2013-01-07 23:21:00,27.0,24.0,30.25,SE,136,1.5,1.5,88,0.00,,,0.00,VWS V14.01,2013-01-08 04:21:00,
2013-01-07 23:26:00,26.8,23.5,30.25,SE,136,1.5,1.5,87,0.00,,,0.00,VWS V14.01,2013-01-08 04:26:00,
2013-01-07 23:30:00,26.7,23.7,30.25,SE,136,1.5,1.5,88,0.00,,,0.00,VWS V14.01,2013-01-08 04:30:00,
2013-01-07 23:35:00,26.4,23.1,30.25,SE,136,1.5,1.5,87,0.00,,,0.00,VWS V14.01,2013-01-08 04:35:00,
2013-01-07 23:40:00,26.0,22.7,30.25,SE,136,1.5,1.5,87,0.00,,,0.00,VWS V14.01,2013-01-08 04:40:00,
2013-01-07 23:45:00,25.6,22.6,30.25,SE,136,1.5,1.5,88,0.00,,,0.00,VWS V14.01,2013-01-08 04:45:00,
2013-01-07 23:50:00,25.6,22.9,30.25,SE,136,1.5,1.5,89,0.00,,,0.00,VWS V14.01,2013-01-08 04:50:00,
2013-01-07 23:55:00,26.0,23.5,30.26,SE,136,1.5,1.5,90,0.00,,,0.00,VWS V14.01,2013-01-08 04:55:00,